Course du Bout de l'an

Class.NomPrénomSexeCatTempsVitesse
1URRUTYPierreMV000:31:4718,88 km/h
2LATESTEREAdrienMV000:31:4718,88 km/h
3PLAISIRBaptisteMSE00:32:0618,69 km/h
4D ANASTASIClementMSE00:32:4218,35 km/h
5DESCHAMPSKevinMSE00:33:1918,01 km/h
6ZARRAAnthonyMV100:33:2417,96 km/h
7OCHOAPieroMSE00:33:5917,66 km/h
8VIOLLETRémiMSE00:34:0217,63 km/h
9VIOLLETMaximeMSE00:34:2117,47 km/h
10DUPINAndoniMJU00:34:2717,42 km/h
11LAGOKévinMSE00:34:5217,21 km/h
12SABATHEVincentMSE00:35:0417,11 km/h
13LACROIXHuguesMV000:35:0917,07 km/h
14LEGIEMBLEAnthonyMV000:35:1217,05 km/h
15SINISIMaximeMV000:35:1617,01 km/h
16GROUTELEmmanuelMV100:35:2316,96 km/h
17BRIOLOscarM-00:35:2416,95 km/h
18GACHENMathieuMSE00:35:2516,94 km/h
19CAZENAVESTéoMSE00:35:3416,87 km/h
20LARVIDOIbanMJU00:35:3516,86 km/h
21BONILLOKevinMSE00:35:3716,85 km/h
22RUBIOPhilippeMSE00:35:3816,84 km/h
23DUPLAANicolasMV000:35:3816,84 km/h
24DEGUINJulienMV100:35:4016,82 km/h
25VAQUEROChristopherMSE00:35:4416,79 km/h
26MALLETTeddyMV100:36:0816,61 km/h
27MESMACQUE-CHAUBADINDEGUYBaptisteMSE00:36:1716,54 km/h
28BERNETArnaudMSE00:36:1916,52 km/h
29CABANNECédricMSE00:36:2016,51 km/h
30MANTONDamienMSE00:36:2016,51 km/h
31BURTRETomMSE00:36:2216,5 km/h
32ROTHSimonMSE00:36:2316,49 km/h
33HARGUINDEGUYAnttonMSE00:36:2416,48 km/h
34DUPOUYMaximeMSE00:36:2616,47 km/h
35IRAZOQUISébastienMV000:36:2716,46 km/h
36RIFFISWilliamMV300:36:3116,43 km/h
37BILLONDavidMV200:36:3516,4 km/h
38COUSINManuelMV100:36:4216,35 km/h
39CALDUMBIDERamuntxoMV100:36:4216,35 km/h
40TANCORobertoMV200:36:5116,28 km/h
41TOMÉCédricMSE00:36:5616,25 km/h
42JANMARTTristanMSE00:36:5916,22 km/h
43MERGALETGuillaumeMSE00:37:0116,21 km/h
44AMESTOYFabienMSE00:37:0516,18 km/h
45CAUSSINBrieucMJU00:37:1216,13 km/h
46BOURDILLATThomasMCA00:37:1216,13 km/h
47POURTAUMathieuMSE00:37:5415,83 km/h
48SANSONETTIXimunMCA00:38:1315,7 km/h
49LAPEGUEDavidMV000:38:1315,7 km/h
50LAPOUBLADEBaptisteMSE00:38:1415,69 km/h
51ZAMORAStéphaneMV100:38:1415,69 km/h
52ROUMIEUThomasMV000:38:1515,69 km/h
53DESAEGHERBriceMSE00:38:1515,69 km/h
54DANOISMaevaFSE00:38:2115,65 km/h
55ETCHARTTxominMSE00:38:2315,63 km/h
56LANOEXabiMCA00:38:2415,62 km/h
57MANNONMathisMJU00:38:2715,6 km/h
58SABALÇAGARAYGilbertMV200:38:2915,59 km/h
59MACHICOTEGEOFFREYMSE00:38:3415,56 km/h
60TISSIERJulienMSE00:38:3415,56 km/h
61CLAUDEAlexandreMSE00:38:3515,55 km/h
62ZEHNDERPierre-NicolasMV000:38:3815,53 km/h
63BIMBARDMathieuMSE00:38:4015,52 km/h
64LESCOULIERThomasMSE00:38:4115,51 km/h
65MILANMatteiMJU00:38:4615,48 km/h
66NOBLIAJokinMSE00:38:4915,46 km/h
67GARATJulienMV000:38:4915,46 km/h
68KERNEddieMV500:38:5115,44 km/h
69CONANECLucasMJU00:38:5115,44 km/h
70SUSPERREGUIEnekoMCA00:38:5215,44 km/h
71SALOULSébastienMSE00:38:5315,43 km/h
72ARRIUBERGECedricMV100:38:5515,42 km/h
73GROELLYBastienMSE00:38:5715,4 km/h
74GOUBARDSebastienMV200:38:5715,4 km/h
75BUNSebastienMV100:38:5915,39 km/h
76PIRESSEBASTIENMV100:38:5915,39 km/h
77PIGNOLGhislainMV200:38:5915,39 km/h
78SALLABERRYArnaudMV000:39:0215,37 km/h
79UROSNicolasMV200:39:0615,35 km/h
80DOYHAMBOUREOlivierMV200:39:1015,32 km/h
81CHABAUDFlorianMSE00:39:1415,29 km/h
82CALDUMBIDEFrédéricMV100:39:1615,28 km/h
83CAZAURANAlexandreMSE00:39:1715,27 km/h
84ABBADIEArnaudMSE00:39:1715,27 km/h
85LABERNEDEAntoineMV000:39:1815,27 km/h
86IRUBETAGOYENAMathiasMV000:39:1915,26 km/h
87DEWILDENicolasMV200:39:2015,25 km/h
88LOUSTAUAnthonyMSE00:39:2015,25 km/h
89MAILLETMarcMV300:39:2515,22 km/h
90LARRONDEAnttonMSE00:39:2615,22 km/h
91RIVESClementMV000:39:2615,22 km/h
92ETCHEBERRYBixenteMSE00:39:3015,19 km/h
93MICHELEmmanuelMV300:39:3115,18 km/h
94POETEJean BaptisteMSE00:39:3115,18 km/h
95LAPORTEMickaelMSE00:39:3515,16 km/h
96LABORDEThomasMSE00:39:3515,16 km/h
97ROLOSPatrickMV400:39:3515,16 km/h
98DIVETGrégoryMV100:39:4215,11 km/h
99ETXEBERRIAAntonioMV100:39:4715,08 km/h
100UGARTEJavierMV100:39:4815,08 km/h
101PASCAL-DALIAMatthiasMES00:39:4915,07 km/h
102ZAMPONI GALEEnekoMSE00:39:5315,04 km/h
103BOUDIERTimothéeMSE00:39:5615,03 km/h
104PASCALBenjaminMSE00:39:5715,02 km/h
105MARAUDOihanMES00:39:5815,01 km/h
106BACCAUDJulienMV000:39:5915,01 km/h
107LELIEVRELohannMV000:39:5915,01 km/h
108BODARDBasileMSE00:40:0814,95 km/h
109RUBIOBernadetteFSE00:40:0914,94 km/h
110ARADIANAndréMV200:40:1114,93 km/h
111DOUILLETAllanMV000:40:1114,93 km/h
112MUJICALaurentMV100:40:1314,92 km/h
113GARIPhilippeMV100:40:1414,91 km/h
114BARRONLAURENTMV200:40:2014,88 km/h
115VALLECILLOSNicolasMSE00:40:2014,88 km/h
116HIPPOCRATEDimitriMV000:40:2114,87 km/h
117LUCOTJohannMV100:40:2214,86 km/h
118ROUGONBrendanMSE00:40:2514,85 km/h
119GLADStéphaneMV300:40:2514,85 km/h
120COCULETNicolasMSE00:40:2714,83 km/h
121DIRIBARNEJean-ChristopheMV300:40:2814,83 km/h
122PEYSALLEFrancoisMV200:40:2914,82 km/h
123LARRONDEMichelMV400:40:3214,8 km/h
124VILLANTMarcMV200:40:3214,8 km/h
125DUCEZDamienMES00:40:3514,78 km/h
126BONNAFFEMelvynMV000:40:3514,78 km/h
127HONDARRAGUEDavidMSE00:40:3614,78 km/h
128GOICOCHEALOICFSE00:40:3914,76 km/h
129DUMERCQJean BernardMV100:40:4014,75 km/h
130LANSXavierMV100:40:4414,73 km/h
131AUTUORIJean-PhilippeMV300:40:4914,7 km/h
132BAILLIOUXStephaneMV200:40:5014,69 km/h
133GUILLONDanielMV500:40:5014,69 km/h
134BRIOLLolaFCA00:40:5114,69 km/h
135HEGOBURUBenjaminMES00:40:5214,68 km/h
136MENDIBURUJULIENMES00:40:5414,67 km/h
137LARRECQHervéMV200:40:5614,66 km/h
138DURANDLouisMSE00:41:0014,63 km/h
139SAIVRESPierreMJU00:41:0214,62 km/h
140RENARDOlivierMV200:41:0314,62 km/h
141MARQUISCèdricMV100:41:0414,61 km/h
142DUBARTJoanMSE00:41:0514,6 km/h
143LAUREDEGillesMV300:41:0614,6 km/h
144CAPLANNEDavidMV200:41:1014,57 km/h
145MIOQUELAURENTMV100:41:1014,57 km/h
146TREMULOTDamianMSE00:41:1114,57 km/h
147MASSONDEMickaelMSE00:41:1214,56 km/h
148ELISELabastieFSE00:41:1414,55 km/h
149LABOYChristopheMV200:41:2114,51 km/h
150DAUGAClémentMES00:41:2414,49 km/h
151BERASSENFlorianMCA00:41:2914,46 km/h
152MARCIREAUIanisMSE00:41:3014,46 km/h
153DUHAUJonathanMV000:41:3114,45 km/h
154IZELAnthonyMV000:41:3614,42 km/h
155BERDOULaurentMV100:41:3814,41 km/h
156ILLARRAMENDI LERTXUNDIEkhiMV000:41:4314,38 km/h
157PARTARRIEUChristianMV100:41:4514,37 km/h
158CUNYBaptisteMSE00:41:4614,37 km/h
159MARTINLauraFSE00:41:4914,35 km/h
160HAMANTOlivierMV200:41:4914,35 km/h
161MARCIACQArnaudMV100:41:5014,34 km/h
162ARCHIDOITJeromeMV100:41:5114,34 km/h
163BRIOLMatthieuMV300:41:5214,33 km/h
164DUPLANDJean-BaptisteMSE00:41:5314,33 km/h
165SANCHEZCédricMV000:41:5414,32 km/h
166LOYATHOXimunMSE00:41:5814,3 km/h
167DOYHENARTRomainMSE00:42:0014,29 km/h
168DICHARRYDOMINIQUEMV500:42:0014,29 km/h
169ARTIGUESPHILIPPEMV000:42:0014,29 km/h
170NEGREElodieFV000:42:0214,27 km/h
171EYHERAMOUNOMathieuMSE00:42:0314,27 km/h
172BESSONARTBenoitMSE00:42:0314,27 km/h
173DELMASJorisMSE00:42:0414,26 km/h
174CRESSONJeromeMV200:42:0414,26 km/h
175SAHALIMouloudMV400:42:0614,25 km/h
176BARIGOUKarimMSE00:42:0714,25 km/h
177FELICESFLORENTMV100:42:0714,25 km/h
178MICHELJimmyMSE00:42:0914,23 km/h
179GUITOUPascalMV600:42:1114,22 km/h
180CAPDEVILLEVincentMSE00:42:1514,2 km/h
181PLAISIRFredericMV200:42:1514,2 km/h
182SATHICQAndoniMSE00:42:1514,2 km/h
183CHARRITONJonMSE00:42:1814,18 km/h
184BARREAUFrédéricMV200:42:1814,18 km/h
185CHAZALONRobinMSE00:42:1914,18 km/h
186RENAUDAurelienMSE00:42:2014,17 km/h
187DAVIDMarcMSE00:42:2014,17 km/h
188ITIERBertrandMSE00:42:2514,15 km/h
189USTULINRomainMV000:42:2714,13 km/h
190JOURDANAlexandreMV000:42:2714,13 km/h
191CRANJeromeMV100:42:2714,13 km/h
192AMESTOYJeanMSE00:42:2714,13 km/h
193BIELLELouisMSE00:42:2914,12 km/h
194LAMBURUThibaudMSE00:42:2914,12 km/h
195IRIBARNEArnaudMV000:42:3014,12 km/h
196VERGNOLLESVincentMV200:42:3114,11 km/h
197LAPEGUEJulienMSE00:42:3314,1 km/h
198LARRODEPhilippeMV200:42:3714,08 km/h
199LALAGUEArnaudMV100:42:3714,08 km/h
200DEYRESSimonMSE00:42:3714,08 km/h
201MISMACQSébastienFSE00:42:3814,07 km/h
202LETALONMaxenceMV100:42:3914,07 km/h
203ESPESOPascalMV000:42:3914,07 km/h
204ELCAURHANDIETAJbMSE00:42:4114,06 km/h
205QUEUILLEJeremyMSE00:42:4214,05 km/h
206VIDALIESPierreMV100:42:4214,05 km/h
207RODRIGUESCynthiaFV000:42:4314,05 km/h
208FERHANEClaireFV100:42:4314,05 km/h
209HINXFredericMV200:42:4614,03 km/h
210GOARREGuillaumeMV100:42:5114 km/h
211DUBOURDIEUGillesMV300:42:5114 km/h
212RICAUDClémentMSE00:42:5313,99 km/h
213MARTINEZOLIVIERMV100:42:5513,98 km/h
214CAMIDEBACHLaurianeFSE00:42:5613,98 km/h
215VENDAN BORINBriceMV000:42:5913,96 km/h
216LAVIGNEBenoitMV100:43:0013,95 km/h
217DUPERTHUISMarcMV500:43:0013,95 km/h
218PETRISSANSXabiMSE00:43:0213,94 km/h
219MARONXavierMV100:43:0413,93 km/h
220MAUBARETPierreMSE00:43:0513,93 km/h
221MOUESCAXabiMSE00:43:0613,92 km/h
222CASTAIGNSJean ClaudeMV200:43:0713,92 km/h
223LARROQUETTEEricMV100:43:0713,92 km/h
224MOUTHONUlysseMES00:43:1113,89 km/h
225CHOMELMarionFSE00:43:1113,89 km/h
226DE PELLEGRINITonyMV000:43:1513,87 km/h
227AUMERCIERNicolasMV100:43:1613,87 km/h
228TELLECHEAMikelMSE00:43:1713,86 km/h
229DUTILHSébastienMV000:43:1913,85 km/h
230DELANNOYDamienMSE00:43:1913,85 km/h
231TRIVIÈREMichelMV200:43:2013,85 km/h
232SENTUPERYBorisMSE00:43:2013,85 km/h
233DARMAILLACQAurélieFV000:43:2113,84 km/h
234CASTANCHOAMattinMV100:43:2113,84 km/h
235PEYSSONEtienneMV200:43:2213,84 km/h
236CAZESJean-BaptisteMSE00:43:2213,84 km/h
237DUCROCQAdrienMSE00:43:2313,83 km/h
238TESTARDAdrienMSE00:43:2313,83 km/h
239PEREBOSCHPhilippeMSE00:43:2313,83 km/h
240GUILLEMOTONIAMathieuMV000:43:2313,83 km/h
241PLACEGregoryMV000:43:2413,82 km/h
242MESTELANJulienMSE00:43:2413,82 km/h
243GOROSTEGUIBixenteMJU00:43:2413,82 km/h
244LALANNEPhilippeMV000:43:2513,82 km/h
245CROSJean-CharlesMV100:43:3313,78 km/h
246HEURTELFabienMV100:43:3413,77 km/h
247HABADJOUDavidMV200:43:3613,76 km/h
248OPTERD'ARCANGUESVictorMSE00:43:3813,75 km/h
249LAPEYREMichelMV300:43:3913,75 km/h
250OLHAGARAYRomainMV100:43:4113,74 km/h
251VIALARONValentinMSE00:43:4213,73 km/h
252BELLEEAnthonyMSE00:43:4213,73 km/h
253LE STRATStephaneMV200:43:4213,73 km/h
254MARTINJulienMCA00:43:4313,72 km/h
255VILLETNicolasMSE00:43:4413,72 km/h
256LAGRUELaurentMSE00:43:4613,71 km/h
257AUBRYCyrilMV200:43:5113,68 km/h
258HARANXabiMJU00:43:5313,67 km/h
259ROUCHFlorianMV100:43:5313,67 km/h
260SAINT-JEANMaiteFV000:43:5513,66 km/h
261IRASTORZAFrancoisMSE00:43:5613,66 km/h
262MUTIOJessicaFSE00:43:5713,65 km/h
263DE CONTISebastienMV200:43:5913,64 km/h
264CAILLOUXPhilippeMV200:44:0013,64 km/h
265MOUTHONVictorM-00:44:0013,64 km/h
266GUYOTNicolasMV200:44:0013,64 km/h
267LACHEOlivierMV000:44:0113,63 km/h
268BARATHugoM-00:44:0213,63 km/h
269DOUATPierreMES00:44:0313,62 km/h
270LOPEZ YESTEMichel²MSE00:44:0313,62 km/h
271AGOUTBORDEMélanieFSE00:44:0413,62 km/h
272MESTDAGHFrancoisMV100:44:0513,61 km/h
273PONTEmileMV500:44:0713,6 km/h
274CIGANDAChristopheMV200:44:0713,6 km/h
275VINCENTBaldaquinMES00:44:0813,6 km/h
276LABISTEGabrielMV300:44:1013,58 km/h
277SAHUCNadègeFV000:44:1213,57 km/h
278GARAYARJoanesMSE00:44:1213,57 km/h
279ROBERTPhilippeMV500:44:1313,57 km/h
280SALESSEChristopheMV100:44:1413,56 km/h
281QUINTALJordanMSE00:44:1413,56 km/h
282SENACAlexandreMV300:44:1513,56 km/h
283ETCHENICDamienMV100:44:1613,55 km/h
284ERREÇARRETAnnickFV000:44:1713,55 km/h
285ALBERDI LARRANAGAGuillaumeMV000:44:1913,54 km/h
286FRANCOISChristopheMV200:44:2213,52 km/h
287BOUILHACGuillaumeMV100:44:2313,52 km/h
288CLAVERIEThibautMV100:44:2313,52 km/h
289AUPICStephaneMV200:44:2513,51 km/h
290BORDAstephaneMV200:44:2613,5 km/h
291DUPERRAYPaulineFSE00:44:2613,5 km/h
292MARIANNERémiMV000:44:3013,48 km/h
293CABEZASMickaëlMV100:44:3213,47 km/h
294DERGUYJulienMSE00:44:3413,46 km/h
295HIBONCyrilMV200:44:3413,46 km/h
296LAFITTEPhilippeMSE00:44:3613,45 km/h
297CHAUVEAUJeromeMV000:44:3713,45 km/h
298CORREDERAYvonMSE00:44:3713,45 km/h
299COUVREURVeroniqueFV000:44:3813,44 km/h
300IRIBARNELaurentMV000:44:3913,44 km/h
301CUEFFSébastienMV100:44:3913,44 km/h
302AROTCARENAMichelMV200:44:4413,41 km/h
303HEGUYArnaudMV000:44:4413,41 km/h
304ODOLJulienMV000:44:4513,41 km/h
305LAGRAULAFrancoisMV200:44:4713,4 km/h
306TAVERNEYannMV100:44:4713,4 km/h
307LAHOUZECedricMV000:44:4713,4 km/h
308ELIZAGOYENThibaudMJU00:44:4813,39 km/h
309CAVEMathieuMV000:44:5013,38 km/h
310LE BRETONSimonMV000:44:5413,36 km/h
311LAPOUBLEJean MichelMV500:44:5513,36 km/h
312SAINT-HILAIREAntoineMSE00:44:5513,36 km/h
313CILLARDBrunoMV300:45:0113,33 km/h
314LARREPabloMSE00:45:0113,33 km/h
315BERON--BILLYRomualdMCA00:45:0313,32 km/h
316TREBUCQStéphanieFV100:45:0413,31 km/h
317BONHOMMEFredericMV100:45:0413,31 km/h
318GILFrancisMV300:45:0713,3 km/h
319DEZESGérardMV500:45:0913,29 km/h
320DE SAINTE CROIXAugustinMV000:45:1213,27 km/h
321MORLAESYannickMV300:45:1313,27 km/h
322AGUERRELilouFCA00:45:1513,26 km/h
323TRANIERMaximeMSE00:45:1513,26 km/h
324GARATEMatthieuM-00:45:1613,25 km/h
325VITTOZPatrickMV400:45:1613,25 km/h
326BOSCQDanielMV000:45:1613,25 km/h
327ROMATETMarcMV200:45:2013,24 km/h
328BERECOECHEAUgoM-00:45:2013,24 km/h
329LHIGONNEAUFabriceMV100:45:2113,23 km/h
330ELHORRIBUREThierryMV300:45:2213,23 km/h
331SARHYBenoitMV100:45:2313,22 km/h
332RANCHOURichardMV300:45:2413,22 km/h
333ETCHALUSVeroniqueFV300:45:2513,21 km/h
334VIVENT-GIRAUDMurielFV100:45:2513,21 km/h
335ROUILLOTYoannMSE00:45:2613,21 km/h
336VAZQUEZRobertoMV400:45:2913,19 km/h
337BIEBERFrédéricMV300:45:2913,19 km/h
338BARRISGuillaumeMV100:45:3113,18 km/h
339GYMBOLISTARomainMV000:45:3113,18 km/h
340LALANNEJean paulMV100:45:3113,18 km/h
341MOMPLOTGaelMSE00:45:3213,18 km/h
342PELÉPascalMV500:45:3313,17 km/h
343BINQUETYannickMV000:45:3413,17 km/h
344POCHELUXavierMV400:45:3513,16 km/h
345PERSILLONVINCENTMV200:45:3613,16 km/h
346RODRIGUEZ POZANCOCarlosMSE00:45:3713,15 km/h
347PRONFabriceMV100:45:3813,15 km/h
348LAFONThibaudMSE00:45:3813,15 km/h
349MOUNEUThomasMV000:45:4013,14 km/h
350ERRANLoicMV000:45:4113,13 km/h
351LESPINEJean LouisMV300:45:4213,13 km/h
352ANSOBORLOCamilleFSE00:45:4213,13 km/h
353BISBAUMickaelMV000:45:4213,13 km/h
354ETCHEGOINSylvainMSE00:45:4313,12 km/h
355BREGANILaurentMV200:45:4313,12 km/h
356AROTCARENAPatxiMSE00:45:4313,12 km/h
357POEYMIROOJoelMV300:45:4413,12 km/h
358AMESTOYJean FrancoisMV400:45:4513,11 km/h
359VASSEURMauriceMV500:45:4613,11 km/h
360ESPRABENSRomainMSE00:45:4713,11 km/h
361DARRIGADEFlorianMV000:45:5013,09 km/h
362IRIGOYENChristianeFSE00:45:5413,07 km/h
363COLOMBELAntoineMSE00:45:5413,07 km/h
364CHRISTIAENSNicolasMV000:45:5413,07 km/h
365BROINE-LARRABURUHuguesMV100:45:5513,07 km/h
366LEFEBVREGrégoryMV000:45:5513,07 km/h
367NAVARROChristopheMV300:45:5513,07 km/h
368GORYDominiqueMV500:45:5613,06 km/h
369ANGLADEPierreMV100:45:5613,06 km/h
370COMBEAUChristopheMV300:45:5713,06 km/h
371GUILLOTINFranckMV400:45:5813,05 km/h
372GUILLONSamuelMV000:46:0013,04 km/h
373DOMBLIDESJulienFSE00:46:0213,03 km/h
374GUENETPierreMSE00:46:0313,03 km/h
375VALENTINPierreMSE00:46:0413,02 km/h
376ARIBITMathieuMV000:46:0713,01 km/h
377BASPhilippeMV400:46:0813,01 km/h
378LALANNEDominiqueMV200:46:0913 km/h
379ARROYAVELaurentMSE00:46:0913 km/h
380FELISAlexandreMV200:46:1112,99 km/h
381NICOULEAUYannickMV200:46:1312,98 km/h
382DOS4509F-00:46:1312,98 km/h
383SAINT MARTINGuillaumeMSE00:46:1512,97 km/h
384BRUNEricMV300:46:1612,97 km/h
385JUANLaurentMV100:46:1712,96 km/h
386GAUGAINJérémyMSE00:46:1812,96 km/h
387CARRASCOFredericMV300:46:1912,95 km/h
388GALHARRAGUEThomasM-00:46:1912,95 km/h
389CASTROStéphanieFV100:46:2012,95 km/h
390HERMANT-TAULETPatriciaFV300:46:2012,95 km/h
391MESSINJeanMSE00:46:2012,95 km/h
392DELPITAlexandreMSE00:46:2212,94 km/h
393GOYENECHEJacquesMV200:46:2312,94 km/h
394LARRAMENDYPeioMV000:46:2412,93 km/h
395JAURETCHEPatrickMV100:46:2512,93 km/h
396CAMBOTGuillaumeMSE00:46:2512,93 km/h
397DISCAZAUXBaptisteMSE00:46:2612,92 km/h
398FRUITLudovicMSE00:46:2612,92 km/h
399COADEBEZJérômeMV100:46:2712,92 km/h
400BASQUINXavierMV300:46:2712,92 km/h
401BELLECAVELaureFV100:46:2712,92 km/h
402CERTAINPierre-LouisMV000:46:2712,92 km/h
403MARTINEZXavierMSE00:46:2712,92 km/h
404BALOCHEAdrienMSE00:46:2812,91 km/h
405FUMERONJeromeMV100:46:2812,91 km/h
406PALASSINFrédéricMV100:46:2912,91 km/h
407GOYENAGACatherineFV100:46:2912,91 km/h
408IRAMUNOAuréliaFV000:46:3012,9 km/h
409AGUERRESebastienMV000:46:3112,9 km/h
410SANGLAPierreMV300:46:3212,89 km/h
411CASTAGNEDEJean-YvesMV500:46:3212,89 km/h
412ETCHEVERRY—PACHECOJuleneF-00:46:3412,88 km/h
413OURETMaiderFSE00:46:3512,88 km/h
414DEDIEULéaFSE00:46:3612,88 km/h
415BOMBOUDIACEricMSE00:46:3612,88 km/h
416DARRIGADEThomasMSE00:46:3712,87 km/h
417BIARDAgnesFV400:46:4112,85 km/h
418HALÇARENChristopheMV400:46:4112,85 km/h
419SERAPHINDavidMV200:46:4112,85 km/h
420THOMASClementMSE00:46:4212,85 km/h
421DACHARRYOlivierMV200:46:4412,84 km/h
422DALLE CARBONAREDAVIDMV100:46:4412,84 km/h
423DURANDMarcMV300:46:4512,83 km/h
424CATRO SOUSAAlbinMV500:46:4712,83 km/h
425PIROTCharlotteFSE00:46:4812,82 km/h
426PUYOSéBASTIENMV100:46:4912,82 km/h
427ESCOUBÉDidierMV200:46:5012,81 km/h
428MACQUIGNEAUChloéFSE00:46:5112,81 km/h
429MARTINXavierMV200:46:5212,8 km/h
430BASTIATArnaudMSE00:46:5212,8 km/h
431BOILLOTSébastienMV200:46:5812,78 km/h
432MEYJonathanMV000:46:5912,77 km/h
433MAISTERRENABixenteMSE00:47:0012,77 km/h
434IRIBARNECyrilleMV100:47:0112,76 km/h
435ESPONDAAnne-MarieFV300:47:0112,76 km/h
436DRIEUXXabiMSE00:47:0212,76 km/h
437MACÉPerrineFSE00:47:0312,75 km/h
438DOUATArmelMV300:47:0312,75 km/h
439DAVERATClemenceFSE00:47:0412,75 km/h
440GOUAUXStephaneMV200:47:0412,75 km/h
441JORAJURIAPierreMSE00:47:0512,74 km/h
442GIRONJeremieMSE00:47:0512,74 km/h
443LANSADEJean ChristopheMV300:47:0612,74 km/h
444ROYERSébastienMV100:47:0612,74 km/h
445COURAULoïcMV200:47:0712,73 km/h
446LAHOUSSERomainMSE00:47:0712,73 km/h
447BOURYJulienMV200:47:0712,73 km/h
448DARIFAbdellahMV400:47:1012,72 km/h
449FORVIELLEDavidMV100:47:1312,71 km/h
450LABATSebastienMV200:47:1712,69 km/h
451ARAGONClemenceFV000:47:1812,68 km/h
452DUBOY CALBETEPhilippeMV200:47:1812,68 km/h
453RIBESAntoineMSE00:47:1812,68 km/h
454BOURDINJulienMV000:47:1912,68 km/h
455VIDALDavidMV000:47:1912,68 km/h
456DESAUWPierreMV400:47:1912,68 km/h
457BOBINMaximeMV000:47:2012,68 km/h
458MENETPhilippeMV500:47:2112,67 km/h
459ARSAUTAlexiaFSE00:47:2112,67 km/h
460PORTEILLaurentMV300:47:2212,67 km/h
461JORAJURIAPierreMV500:47:2212,67 km/h
462ECHARTEMaria-SharonFV400:47:2612,65 km/h
463DABBADIERegisMV300:47:2712,64 km/h
464BIGOTAndriesMSE00:47:2812,64 km/h
465CROUZATNicolasMV100:47:2912,64 km/h
466BARRAUDGuillaumeMV100:47:2912,64 km/h
467DE LA PARRANicolasMV100:47:3112,63 km/h
468LAFITTEOlivierMV200:47:3212,62 km/h
469CAZADEPierre LouisM-00:47:3212,62 km/h
470DARMENDRAILJohannaFV000:47:3512,61 km/h
471LARDDidierMV300:47:3512,61 km/h
472DAGHERIRPatrickMV500:47:3512,61 km/h
473GAIMEClementM-00:47:3612,61 km/h
474PEILHOSimonMSE00:47:3612,61 km/h
475DUPRATFabienMV000:47:3612,61 km/h
476POMMIESMaialenFSE00:47:3712,6 km/h
477MEYRANXFrancoisMV200:47:3712,6 km/h
478PIDOFFTitouanMJU00:47:3912,59 km/h
479COMBLATCyprienM-00:47:3912,59 km/h
480D ANASTASIAlexanderMV200:47:3912,59 km/h
481LARRUEPierreMSE00:47:3912,59 km/h
482HARCAUTLaetitiaFV100:47:4012,59 km/h
483ETAVEFranckMV100:47:4012,59 km/h
484HUMBERTPhilippeMV000:47:4112,58 km/h
485POUCHUCQJean PaulMV400:47:4112,58 km/h
486SEIGNARDNicolasMV200:47:4112,58 km/h
487CHABOTMickaelMV200:47:4212,58 km/h
488SAINT-ORENSJean-LucMV300:47:4212,58 km/h
489OLHAGARAYIbanMV000:47:4212,58 km/h
490PERYBaptisteMES00:47:4212,58 km/h
491FOURCADEThomasMSE00:47:4412,57 km/h
492CARRIERECyrilMV200:47:4512,57 km/h
493LANDARTStephaneMV000:47:4612,56 km/h
494MARTINAlexandreMV000:47:4712,56 km/h
495BOUTONFranckMV300:47:4712,56 km/h
496ERDOCIORégisMV000:47:5012,54 km/h
497STEUNOUNicolasMV200:47:5012,54 km/h
498GIRARDMichaelMV100:47:5012,54 km/h
499HAMANTFrancoisMV300:47:5412,53 km/h
500VALDIVIELSOJulienMSE00:47:5512,52 km/h
501ETCHEVERRYXabiMV200:47:5612,52 km/h
502LABARRERESéverineFV300:47:5612,52 km/h
503SERBATMarionFCA00:47:5612,52 km/h
504GAUBERTLéaFSE00:47:5712,51 km/h
505NINASébastienMV100:47:5812,51 km/h
506SCOHYJean-YvesMV200:48:0012,5 km/h
507JOUARTMatthieuMSE00:48:0212,49 km/h
508COINCEThierryMV500:48:0212,49 km/h
509ETCHEVERRYNicolasMSE00:48:0312,49 km/h
510JAUREGUIBERRYPhilippeMV200:48:0312,49 km/h
511ABERARDJean-BaptisteMSE00:48:0312,49 km/h
512BOURGEOISFredericMV200:48:0412,48 km/h
513JAUREGUIBERRYHugoMCA00:48:0412,48 km/h
514ABEBERRYBernardMSE00:48:0412,48 km/h
515MASSONFRANCISMV300:48:0412,48 km/h
516GUIGNARDNicolasMV200:48:0512,48 km/h
517PAYENAdrianMSE00:48:0512,48 km/h
518SANCHEZMathieuMV100:48:0612,47 km/h
519VERHEYDENMelanieFV200:48:0612,47 km/h
520LAPEYREColetteFV300:48:0612,47 km/h
521DA ROCHA ALVESMarieFSE00:48:0712,47 km/h
522PAGOLAXavierMV100:48:0712,47 km/h
523LE MEURYannMV200:48:0812,47 km/h
524CARREREClementineFSE00:48:0812,47 km/h
525MALE DIT CAZOTSophieFV000:48:0912,46 km/h
526SERVATVirginieFV100:48:1012,46 km/h
527TRANIERFabienMSE00:48:1012,46 km/h
528LE BOHECSamuelMCA00:48:1112,45 km/h
529MONGELorrisMSE00:48:1212,45 km/h
530ANTUNES PINTOSebastienMSE00:48:1312,44 km/h
531HAROSTEGUYGérardMV000:48:1312,44 km/h
532FABRESJérômeMV200:48:1312,44 km/h
533LAGRENADEThomasMSE00:48:1312,44 km/h
534HUGOTFabriceMV300:48:1412,44 km/h
535IRIGOYENNicolasMV100:48:1412,44 km/h
536DEMANValérieFV200:48:1512,44 km/h
537GANTEJeanMV300:48:1612,43 km/h
538ROGERStanislasMV000:48:1612,43 km/h
539SAUVAGEVincentMV100:48:1812,42 km/h
540ERRECARTMaitenaFV000:48:1912,42 km/h
541FLORENTINGaétanMV200:48:2012,41 km/h
542CARRÈREMichelMV500:48:2112,41 km/h
543DELUCAJeromeMV400:48:2312,4 km/h
544DUPRATCEDRICMV000:48:2512,39 km/h
545MEZINCarolineFV400:48:2612,39 km/h
546RICHARDJean-LucMV300:48:2612,39 km/h
547SUZANNEVirginieFV000:48:2612,39 km/h
548DARRACQDidierMV200:48:2712,38 km/h
549EHMANNYanni-KarlM-00:48:2812,38 km/h
550LEPAINTEURMickaelMV200:48:2812,38 km/h
551LAUDINETJean PierreMV300:48:2812,38 km/h
552CHABAUDThierryMV300:48:2912,38 km/h
553FAUTHOUXFlorianMSE00:48:3112,37 km/h
554DUCOURNAUCHRISTOPHEMV200:48:3212,36 km/h
555DOS2179F-00:48:3212,36 km/h
556BARENNESManitraMSE00:48:3212,36 km/h
557GUILLOTONJeanMSE00:48:3212,36 km/h
558FOUASSIERQuentinMCA00:48:3212,36 km/h
559DEBAVELAEREAlexisMV200:48:3412,35 km/h
560FOUASSIERMickaëlMV100:48:3412,35 km/h
561VENIANTJean-RegisMV400:48:3512,35 km/h
562GUILLEJeremyMV000:48:3512,35 km/h
563LAFITTE-TROUQUECécileFSE00:48:3612,35 km/h
564ROUQUETClaireFV100:48:3812,34 km/h
565JACQUESChristopheMV300:48:4012,33 km/h
566ELLAChildesFES00:48:4112,32 km/h
567JACQUESJulienMV100:48:4112,32 km/h
568SAGARDOYBURUAnneFV300:48:4312,32 km/h
569SIMONPascalMV200:48:4312,32 km/h
570MENDYMaïderFSE00:48:4512,31 km/h
571BERECOECHEAPaulMV200:48:4512,31 km/h
572MONTIERFRANCOISMSE00:48:4512,31 km/h
573CACHENThomasMSE00:48:4612,3 km/h
574MAYSTREHugoMES00:48:4612,3 km/h
575LAGARDERENicolasMV000:48:4612,3 km/h
576ETCHEVERRYKarineFV100:48:4712,3 km/h
577FICARELLIFannyFV000:48:4812,3 km/h
578TOURREILLELudovicMSE00:48:5112,28 km/h
579TROLLIETPierreMSE00:48:5312,27 km/h
580GOYACedricMV000:48:5412,27 km/h
581SANSENACQXavierMV200:48:5412,27 km/h
582MORENOJEAN FRANCOISMSE00:48:5512,27 km/h
583BOSSEStephaneMV100:48:5512,27 km/h
584SAUVAIN-MICHELJulieFSE00:48:5512,27 km/h
585BERECOECHEAFrançoisMV300:48:5812,25 km/h
586GABRIONSylviaFV100:49:0012,24 km/h
587SERVATJamesMV100:49:0012,24 km/h
588LAFFORGUEAurélienMV000:49:0212,24 km/h
589BASTIATSylvainMSE00:49:0312,23 km/h
590IRUITEJeremyMV000:49:0412,23 km/h
591MARTINONJean-DidierMV300:49:0412,23 km/h
592CALVETLaurentMV100:49:0512,22 km/h
594ETCHECAHARRETAFabriceMV200:49:0812,21 km/h
595ERICKAClaverieFV000:49:0812,21 km/h
596NAVEILHANMichelMV500:49:0912,21 km/h
597ROBIDARTJean MichelMV400:49:0912,21 km/h
598FAYEJérômeMV000:49:0912,21 km/h
599PHILIPPOTAUXRémyMSE00:49:0912,21 km/h
600ZUDAIREMathieuMV000:49:0912,21 km/h
601ZUAZNABAR INDAJÉRÔMEMV100:49:1112,2 km/h
602GIEULESGuilhemMSE00:49:1112,2 km/h
603BARROMESEléaFCA00:49:1112,2 km/h
604LETOMBEEricMV100:49:1112,2 km/h
605GODEAUBenoitMV000:49:1112,2 km/h
606LAFONDeborahFV000:49:1212,2 km/h
607HARISPEVincentMSE00:49:1212,2 km/h
608ETCHEVERRYBaptisteMJU00:49:1212,2 km/h
609GRACIETClementMSE00:49:1212,2 km/h
610ETCHEVERRYPascalMV100:49:1212,2 km/h
611DAMESTOYFranckMV000:49:1212,2 km/h
612MILANAdrianoMV200:49:1312,19 km/h
613DUFOURGFabienMV300:49:1312,19 km/h
614PUIGPierreMV600:49:1412,19 km/h
615ROGERomainMV100:49:1412,19 km/h
616ALCELAYXabiMSE00:49:1412,19 km/h
617SALADidierMV100:49:1512,18 km/h
618LALANNEThierryMV100:49:1612,18 km/h
619DE BOUVILLEEdouardMV000:49:1712,17 km/h
620VERRIERDavidMSE00:49:1712,17 km/h
621SAINTEMARIEEricMV100:49:1712,17 km/h
622BOURRICAUDJacquesMV400:49:1812,17 km/h
623POIRIERHuguesMCA00:49:1812,17 km/h
624NAISGrégoryMV200:49:1812,17 km/h
625HERNANDEZMathieuMV000:49:1812,17 km/h
626UTRERASXavierMV200:49:1812,17 km/h
627JUSTEArnaudMSE00:49:1812,17 km/h
628DAUGAREILBastienMSE00:49:1812,17 km/h
629BIELLEPaulMSE00:49:1912,17 km/h
630MAUDOUSRomainMV000:49:1912,17 km/h
631HIRIBERRYStéphaneMV100:49:1912,17 km/h
632GARATMarinaFSE00:49:1912,17 km/h
633TAILLEURJulienMSE00:49:1912,17 km/h
634DAVIDAlainMV400:49:2012,16 km/h
635UTHURRISQCamilleFSE00:49:2112,16 km/h
636CARDONValentinMSE00:49:2212,15 km/h
637HULEWICZEmilieFV000:49:2212,15 km/h
638COUCHOTSaraFJU00:49:2312,15 km/h
639DARMAYANStephaneMV200:49:2412,15 km/h
640LISSAGUEJean MarcMV300:49:2512,14 km/h
641GUILHEMOTONIAJeanMV100:49:2612,14 km/h
642HAITZAGUERRELaureFSE00:49:2812,13 km/h
643LEVISTEFrancoisMV500:49:2812,13 km/h
644ARHANCETJoanaFV100:49:2912,13 km/h
645BERNÈDEWilfriedMV200:49:3012,12 km/h
646CURTIGabrieleMSE00:49:3212,11 km/h
647DIAS SOEIROAdrianoMV100:49:3312,11 km/h
648TIPIFredMV400:49:3412,1 km/h
649DUFFOURGLaurentMV300:49:3412,1 km/h
650CABANTOUSPaulMSE00:49:3512,1 km/h
651COLCOMBETLaurentMV400:49:3612,1 km/h
652SPAGOJean-claudeMV400:49:3812,09 km/h
653BOIGNETDenisMV400:49:3812,09 km/h
654IZAGUIRREJérômeMV100:49:3812,09 km/h
655LEFEBVREOlivierMV100:49:3812,09 km/h
656LAXAGUESandrineFV100:49:3912,08 km/h
657THIERRYNicolasMSE00:49:3912,08 km/h
658EZQUERRAXabiMV400:49:4012,08 km/h
659LABRADORGaspardMCA00:49:4012,08 km/h
660CLEOMENESandraFV300:49:4112,08 km/h
661ETCHEBERRYJeanMV600:49:4412,06 km/h
662HAUSERKarineFV000:49:4412,06 km/h
663VELLAGuillaumeMSE00:49:4412,06 km/h
664ANGUELUMayalenFV000:49:4912,04 km/h
665POUGNARDFabienneFV100:49:5212,03 km/h
666LAFARGUEElineFSE00:50:0012 km/h
667LASAGAFabienMSE00:50:0012 km/h
668TAULETPhilippeMV300:50:0112 km/h
669LABATUTFlorentMSE00:50:0211,99 km/h
670DELATTREBastienMV100:50:0211,99 km/h
671DEMANFabriceMV200:50:0311,99 km/h
672TEISSEIRERubenMCA00:50:0311,99 km/h
673CALLETTIFabriceMV400:50:0411,98 km/h
674CHAVANNEBertrandMV300:50:0411,98 km/h
675CAPDEVILLEYonMV000:50:0411,98 km/h
676DANNEROclaneF-00:50:0511,98 km/h
677SARABANDOFernandoMV400:50:0611,98 km/h
678DAUGAMarieF-00:50:0611,98 km/h
679BASTIATAlainMV400:50:0611,98 km/h
680ALVES RAMOSYannickMSE00:50:0611,98 km/h
681DARSUJean BaptisteMSE00:50:0911,96 km/h
682LUCASColineFSE00:50:1111,96 km/h
683LANOUGUERESébastienMV100:50:1211,95 km/h
684DEBATMarie-LaureFV400:50:1311,95 km/h
685CANADAFrançoisMV200:50:1411,94 km/h
686THEAUAudreyFSE00:50:1411,94 km/h
687BOINOTStephaneMV000:50:1511,94 km/h
688ANTTONEtcheversMSE00:50:1711,93 km/h
689RAYMONDXavierMV000:50:1811,93 km/h
690CHARRONJean-SébastienMV200:50:1811,93 km/h
691HIRIGOYENJean MarieMV100:50:1811,93 km/h
692CACHENPaulineFSE00:50:1911,92 km/h
693FRONZESPhilippeMV200:50:1911,92 km/h
694JUSANXPierreMV300:50:1911,92 km/h
695LABARREREVincentMV300:50:2011,92 km/h
696ELISSALDEPierreMV100:50:2011,92 km/h
697ETCHEBESTLucieFSE00:50:2011,92 km/h
698ROMATETVincentMSE00:50:2111,92 km/h
699CACHENAUTRemyMSE00:50:2211,91 km/h
700DENISEAliceFV000:50:2211,91 km/h
701BEYERPascaleFV200:50:2211,91 km/h
702ERRECARTJoëlMV300:50:2311,91 km/h
703ATHANÉManuMV200:50:2411,9 km/h
704COURTADEMarjorieFV100:50:2411,9 km/h
705BESSEDavidMV200:50:2411,9 km/h
706TURON-BARRERETheoMJU00:50:2411,9 km/h
707GUISASOLAMatthieuMV100:50:2511,9 km/h
708MONBET DUFAUGauthierMJU00:50:2511,9 km/h
709MATHISJulienMV100:50:2511,9 km/h
710PONDEULAÀVéroniqueFV100:50:2511,9 km/h
711LAPORTEMarineFCA00:50:2811,89 km/h
712ETCHECAHARLaurentMV200:50:2811,89 km/h
713LE GOUPILSFlorentMSE00:50:2811,89 km/h
714AUZIArnaudMV000:50:2911,89 km/h
715QUILLIOTMathieuMV000:50:3011,88 km/h
716OBLINJulienMSE00:50:3011,88 km/h
717BUREAUNicolasMV200:50:3011,88 km/h
718SCHAACKOlivierMV300:50:3211,87 km/h
719BAKELMalikMV300:50:3311,87 km/h
720ALBACamilleMSE00:50:3311,87 km/h
721LETOMBEYouriMCA00:50:3411,87 km/h
722LAGOARDEFaustoMCA00:50:3611,86 km/h
723MEYNIELFranckMV300:50:3711,85 km/h
724VIDALJean-PierreMV400:50:3711,85 km/h
725MALETBenoitMSE00:50:3911,85 km/h
726CACHENPhilippeMV400:50:3911,85 km/h
727ITHURBIDEMathieuMV100:50:3911,85 km/h
728FEDELIQUEThomasMSE00:50:4011,84 km/h
729ARIBITJoelMSE00:50:4211,83 km/h
730MADRIDJeremyMSE00:50:4311,83 km/h
731DEMANGELPatriceMV500:50:4411,83 km/h
732BERECOECHEAAinhoaFJU00:50:4411,83 km/h
733HUITOLRonanMV000:50:4511,82 km/h
734ELHUYARChristelleFV000:50:4511,82 km/h
735DAIZISVincentMSE00:50:4611,82 km/h
736SALLABERRY MARGOTNicoleFV500:50:4711,81 km/h
737QUEYLATMikaelMV000:50:4811,81 km/h
738LATASTENellyFSE00:50:4911,81 km/h
739CAMPOURCYFannyFSE00:50:5111,8 km/h
740LAMOLEREDidierMV400:50:5211,8 km/h
741SAINT-GERMES DUCASSEAntoineMSE00:50:5611,78 km/h
742LARTIGUELouisMSE00:50:5711,78 km/h
743GEANYLouFCA00:50:5811,77 km/h
744BROCHETBenjaminMV000:50:5911,77 km/h
745VEUILLENSNellyFV000:51:0111,76 km/h
746TIRIZICAMariusMV100:51:0211,76 km/h
747BRIÈREOihanMSE00:51:0211,76 km/h
748LOLOMPhilippeMV400:51:0311,75 km/h
749ARA-MINCHOLEDFrançois-XavierMSE00:51:0411,75 km/h
750RECARTColasMES00:51:0411,75 km/h
751CHAMBRESChristopheMV200:51:0411,75 km/h
752LAGARDEREBrunoMV300:51:0511,75 km/h
753LARTIGUEEricMV300:51:0511,75 km/h
754TECHERnathalieFV300:51:0611,74 km/h
755DUBOSJean-SergeMV600:51:0711,74 km/h
756LAMUREJean-MarcMV100:51:0711,74 km/h
757BARTHEUOlivierMV200:51:0811,73 km/h
758RUFFIERSandraFV000:51:1211,72 km/h
759HERBINFrancoisMV400:51:1311,71 km/h
760LAPLACEPierreMSE00:51:1311,71 km/h
761HIQUETFabienMSE00:51:1311,71 km/h
762LACOUETTERégisMV200:51:1411,71 km/h
763GARAYFrédéricMV200:51:1411,71 km/h
764DOS3273MV400:51:1611,7 km/h
765LABATUTCedricMV000:51:1611,7 km/h
766JOUVENELManonFSE00:51:1811,7 km/h
767PIGAULTPriscilleFV100:51:1911,69 km/h
768DUPOUYJulienMV100:51:1911,69 km/h
769BAMPSEricMSE00:51:1911,69 km/h
770GUILLOTINMarieFES00:51:2011,69 km/h
771CABANACKarineFV200:51:2011,69 km/h
772MALGOUYRESGilbertMV400:51:2011,69 km/h
773ROGUESThierryMV200:51:2111,68 km/h
774FAUBERTSergeMV300:51:2111,68 km/h
775LABEYRIESandraFV200:51:2111,68 km/h
776CARREAliceFSE00:51:2111,68 km/h
777ARRIOLJulenMSE00:51:2311,68 km/h
778LAFFITTEBrunoMSE00:51:2411,67 km/h
779CHIRLEXavierMV300:51:2511,67 km/h
780MONEGHETTIVincentMV200:51:2611,67 km/h
781DABADIEJean-BaptisteMV000:51:2711,66 km/h
782LICKKarineFV200:51:2711,66 km/h
783HALTYJean SebastienMV100:51:2711,66 km/h
784MORVANErwannMV200:51:2711,66 km/h
785SARRAUDETomMSE00:51:2811,66 km/h
786MERDYClaudeMV400:51:2811,66 km/h
787SAIVRESMathieuMV200:51:2911,65 km/h
788SABALORegisMV200:51:3011,65 km/h
789BARTHEUAgnèsFV100:51:3011,65 km/h
790VINCENTEdithFV000:51:3011,65 km/h
791MAUSYannMV300:51:3111,65 km/h
792CAZANAVEValerieFV200:51:3111,65 km/h
793SIMONEAUNicolasMV100:51:3211,64 km/h
794MIMOUNAguirreMV100:51:3211,64 km/h
795LABRUQUERESébastienMV000:51:3211,64 km/h
796DUHAPaulMSE00:51:3311,64 km/h
797LANNEBRASEricMV300:51:3311,64 km/h
798URRUTIARomainMSE00:51:3411,64 km/h
799ARHETSPeioMSE00:51:3411,64 km/h
800MOUSTIRATSMaevaFES00:51:3411,64 km/h
801DELBRELJulienMV200:51:3411,64 km/h
802MITTELSTADTHugoMJU00:51:3511,63 km/h
803MITTELSTADTLudovicMV200:51:3511,63 km/h
804ID SALAHNordineMV500:51:3611,63 km/h
805BERNADGuillaumeMV000:51:4311,6 km/h
806BAUDUERFrédéricMV500:51:4911,58 km/h
807BERGAlizeeFSE00:51:4911,58 km/h
808BOUCHARELZanatsoaFV100:51:5011,58 km/h
809LAPIZPhilippeMSE00:51:5011,58 km/h
810BOUYSSEBlandineFSE00:51:5011,58 km/h
811CABROLAnne-LaureFSE00:51:5011,58 km/h
812PIGAULTMyriamFV100:51:5111,57 km/h
813MAILHARINPierreMV000:51:5111,57 km/h
814TIPIClémentM-00:51:5211,57 km/h
815BOUCHARELJoelMV500:51:5211,57 km/h
816LAMYMarineFSE00:51:5211,57 km/h
817RECARTDidierMV400:51:5211,57 km/h
818OLASSOPatxiMSE00:51:5211,57 km/h
819PAULMIERJean-PhilippeMV400:51:5311,56 km/h
820DESBIEYSChristopheMV000:51:5511,56 km/h
821GUÉRINJean-FrançoisMV600:51:5611,55 km/h
822BERASSENRamuntxoMV200:51:5611,55 km/h
823BOURGNEUFArnaudMV300:51:5711,55 km/h
824DELPORTEManonFES00:51:5811,55 km/h
825DAVIDMatthisMCA00:51:5811,55 km/h
826VAN DE VENNinaF-00:51:5911,54 km/h
827LE BLOASJean-FrançoisMV100:52:0011,54 km/h
828BELLOCQJeanMSE00:52:0011,54 km/h
829AMESPILJonMSE00:52:0011,54 km/h
830KERDAVIDMaevaFSE00:52:0011,54 km/h
831KUENTZStephaneMV200:52:0111,53 km/h
832DUPOUYJérômeMV000:52:0111,53 km/h
833GUYETANDMatthieuMV000:52:0111,53 km/h
834LARREOlivierMV300:52:0111,53 km/h
835OYHENARTAnaisFSE00:52:0111,53 km/h
836MARCHISETChristineFV100:52:0211,53 km/h
837TOMASMarie JoséeFV300:52:0411,52 km/h
838MARQUESUZAAVanessaFV000:52:0511,52 km/h
839RADÉOlivierMV400:52:0511,52 km/h
840FORESTIERJean-YvesMV400:52:0811,51 km/h
841MÉRIGNACMarionFV200:52:0911,51 km/h
842GARICOITZPrixkaFSE00:52:0911,51 km/h
843LARCABALChristianMV100:52:0911,51 km/h
844BALESPOUEYBenoitMV100:52:1011,5 km/h
845LAURENTSébastienMV000:52:1011,5 km/h
846LEPLATOISGregoryMV100:52:1111,5 km/h
847BELLANAnne-MarieFV600:52:1211,49 km/h
848REYThomasMSE00:52:1211,49 km/h
849MENDIBOUREBenjaminMV100:52:1211,49 km/h
850CAMBERABEROCedricMV200:52:1211,49 km/h
851DUPOUYNicolasMV200:52:1211,49 km/h
852BARRIERGaëlleFV000:52:1311,49 km/h
853ESCARPITPierre YvesMV100:52:1411,49 km/h
854BARGAINNathalieFV000:52:1411,49 km/h
855BORIEDavidMV100:52:1511,48 km/h
856GHERSIDanielMV500:52:1511,48 km/h
857SANGUINETFannyFV000:52:1511,48 km/h
858LAGADECOwenMV100:52:1611,48 km/h
859DUVICCyrilMV100:52:1711,48 km/h
860CARBONELMathieuMV000:52:1711,48 km/h
861GARAYFlorenceFV300:52:1811,47 km/h
862HERREROSLeilaFV000:52:1811,47 km/h
863HUETJulienMSE00:52:1911,47 km/h
864GESebastienMV300:52:1911,47 km/h
865PUECHMaudeFV100:52:1911,47 km/h
866DELLA LIBERAFabienMV300:52:1911,47 km/h
867CHARRITTONMikelMV200:52:2011,46 km/h
868GANDARAVincentMV100:52:2111,46 km/h
869MOUTEL-GROSDavidMV200:52:2111,46 km/h
870FOSSOYEUXInèsFSE00:52:2311,45 km/h
871LANDARTThéoMJU00:52:2311,45 km/h
872LANGUETTEBrunoMV400:52:2411,45 km/h
873BISBAUDAMIENMV000:52:2411,45 km/h
874MORESMAUGerardMV500:52:2511,45 km/h
875ESTEVEZBenoitMV300:52:2611,44 km/h
876LONGUEIRACaroleFV300:52:2611,44 km/h
877LANGEVINVirginieFV200:52:2811,44 km/h
878PLAISIRRemiM-00:52:2911,43 km/h
879CHOUBRACLudovicMSE00:52:2911,43 km/h
880PORTEOlivierMV200:52:2911,43 km/h
881CLAIRET PORTELehenaFCA00:52:2911,43 km/h
882GONCALVESLaurindaFV400:52:3011,43 km/h
883BARCELONAJulieFSE00:52:3111,42 km/h
884FOJTICKManonFSE00:52:3211,42 km/h
885DUPERRETAnaizFSE00:52:3211,42 km/h
886CORNUTDavidMV200:52:3411,41 km/h
887LAPORTEHenriMV300:52:3811,4 km/h
888HARLOUCHETMaiaFSE00:52:3811,4 km/h
889LEGORJUSClaudeMV600:52:3911,4 km/h
890ZUDAIREBixenteMSE00:52:3911,4 km/h
891DARRICAUPhilippeMV400:52:4111,39 km/h
892MAURELPhilippeMV400:52:4311,38 km/h
893DASSETMarieFV000:52:4411,38 km/h
894SUBIRONNicoleFV400:52:4411,38 km/h
895GORINMarie FranceFV300:52:4511,37 km/h
896ETCHEBERRYJean MarcMV300:52:4511,37 km/h
897CAMPIONIErikaFV200:52:4611,37 km/h
898DELAMARCHELucMV400:52:4611,37 km/h
899ABIDHMickaëlMV100:52:4611,37 km/h
900COINCEChristineFV400:52:4711,37 km/h
901GOUINJean -PierreMV400:52:4711,37 km/h
902HOURCADEPeioMSE00:52:4711,37 km/h
903MAURYSébastienMV200:52:4711,37 km/h
904PERUFredericMV400:52:4811,36 km/h
905ARRIUBERGEBenoîtMV000:52:5011,36 km/h
906ALFAROMichelMV300:52:5011,36 km/h
907DAVAUXAnnabelleFSE00:52:5111,35 km/h
908ETCHELECOUGerardMV400:52:5111,35 km/h
909ESPRABENSFrancisMV500:52:5211,35 km/h
910FALAISELauraFSE00:52:5211,35 km/h
911LARROUQUISLéaFSE00:52:5311,35 km/h
912BISCAYMarcMSE00:52:5411,34 km/h
913BLANCOPabloMV500:52:5411,34 km/h
914LALANNEAlexMV200:52:5611,34 km/h
915MOREAUCELINEFV000:52:5711,33 km/h
916SOUQUESJean-JacquesMV400:52:5711,33 km/h
917LAGADECCaroleFV100:52:5811,33 km/h
918GUARDIASylvainMSE00:52:5811,33 km/h
919DUFOURCQFrédéricMV200:52:5811,33 km/h
920MAUJEANCelineFSE00:52:5911,32 km/h
921RECARTNoémieFSE00:52:5911,32 km/h
922CAILLEBALudivineFV000:52:5911,32 km/h
923SERRIERNathalieFV200:52:5911,32 km/h
924FABREMichelMV200:52:5911,32 km/h
925MACHICOTEMarie-ChristineFV400:53:0011,32 km/h
926RENAUXCATHYFV400:53:0111,32 km/h
927LAFITTEKarineFV200:53:0111,32 km/h
928ELISSAGARAYÉmilieFV100:53:0211,31 km/h
929COSSEOlivierMSE00:53:0311,31 km/h
930PONTACQJean LouisMV600:53:0311,31 km/h
931JACOTRomainMSE00:53:0411,31 km/h
932HOUEIXGwenaelMSE00:53:0811,29 km/h
933LASSERREXavierMV400:53:0911,29 km/h
934LEMAITREDAVIDMV200:53:0911,29 km/h
935DENISJean BaptisteMV200:53:1311,27 km/h
936GALINDOAurelieFV000:53:1511,27 km/h
937DISCAZAUXPierreMSE00:53:1511,27 km/h
938TESTEDavidMV200:53:1611,26 km/h
939GUILHOUCédricMV200:53:1711,26 km/h
940TAMATeheiuraFSE00:53:1811,26 km/h
941EYSSONMarieFV100:53:1811,26 km/h
942BARTETEPatrickMV500:53:1811,26 km/h
943FOIS DUCLERCMathildeFSE00:53:1911,25 km/h
944DUCLERCFrançoiseFV500:53:1911,25 km/h
945GUERINSebastienMV100:53:1911,25 km/h
946MAURYSandrineFV100:53:2111,25 km/h
947MAJOURAUArnaudMV000:53:2111,25 km/h
948COURONNEFannyFV000:53:2111,25 km/h
949LEBEAUJeremieMSE00:53:2111,25 km/h
950LAXAGUEBORDEJulieFSE00:53:2211,24 km/h
951ROMEO-WENZELValerieFV000:53:2211,24 km/h
952BAILLYBernardMV600:53:2211,24 km/h
953SEGUELAJeromeMV000:53:2211,24 km/h
954ALBAJulieFSE00:53:2211,24 km/h
955ROUSSETDavidMV100:53:2311,24 km/h
956ESTAYNOUOlivierMV300:53:2311,24 km/h
957FICHOTJulienMV100:53:2411,24 km/h
958ALONZOJean MichelMV600:53:2511,23 km/h
959ETCHEVERRYLaurentMV100:53:2811,22 km/h
960BIELLESophieFV200:53:2911,22 km/h
961ANDRIEUJean-ChristopheMV500:53:3011,21 km/h
962HOURDEBAIGTSSylvieFV300:53:3411,2 km/h
963LAHOUILLELaurentMV500:53:3611,19 km/h
964EARNSHAWNathalieFSE00:53:3711,19 km/h
965IDIARTJean-PierreMV500:53:3911,18 km/h
966MAJERUSCecileFV000:53:4211,17 km/h
967BEDINBertrandMV000:53:4311,17 km/h
968TARISBeatriceFV400:53:4311,17 km/h
969POETEClotildeFSE00:53:4511,16 km/h
970LAGRABETTEAudeFV000:53:4611,16 km/h
971MORNETAudreyFV100:53:4611,16 km/h
972BATTUAdrienMV000:53:4711,16 km/h
973DOMENGERJean-NoëlMV300:53:4711,16 km/h
974ORTHETWilliamMV200:53:4811,15 km/h
975SACHTLEBENAudeFV000:53:4911,15 km/h
976HARGAINFlorenceFV300:53:5011,15 km/h
977JACOBSPierre-alainMV100:53:5111,14 km/h
978ORTHETLucileFES00:53:5111,14 km/h
979FERREIRAGeorgesMV300:53:5111,14 km/h
980HIRIARTEAlainMV200:53:5211,14 km/h
981ELISSALDECecileFV000:53:5311,14 km/h
982VERGNEPhilippeMV400:53:5511,13 km/h
983PEYROUTETEmmaF-00:53:5611,12 km/h
984LABRADORRichardMV300:53:5711,12 km/h
985HAURIEUPhilippeMV300:53:5911,11 km/h
986ETCHEGARAYChristianMV300:53:5911,11 km/h
987WATTIGNYNoëlMV400:54:0111,11 km/h
988CAZENABECélineFV200:54:0211,1 km/h
989GARRIGOUPierreMSE00:54:0211,1 km/h
990MICHELVincentMV000:54:0311,1 km/h
991FREDEFON - PIGNOLSéverineFV200:54:0311,1 km/h
992PARAILLOUSThibautMSE00:54:0311,1 km/h
993LAVIGNEGeorgesMV700:54:0411,1 km/h
994BAGARDJoëlleFV000:54:0411,1 km/h
995CAPLANNEDidierMV400:54:0411,1 km/h
996BARBREAUYvesMV500:54:0411,1 km/h
997LA PLANETACédricMV400:54:0511,09 km/h
998BESSEAuroreFV100:54:0511,09 km/h
999MALÈ-DIT-CAZOTChristopheMV300:54:0511,09 km/h
1000AMORYFlorenceFSE00:54:0511,09 km/h
1001MAILHARROUPascaleFV400:54:0611,09 km/h
1002GARCIADavidMSE00:54:0611,09 km/h
1003D ANASTASISarahFV200:54:0711,09 km/h
1004PISTRELaurenceFV300:54:0711,09 km/h
1005CHABAGNOStéphanieFV100:54:0911,08 km/h
1006PEYROUTETJean BernardMV500:54:1011,08 km/h
1007MARTIN-PERIDIERThibaultMSE00:54:1011,08 km/h
1008GARATLoreaFSE00:54:1111,07 km/h
1009BELLECAVEYonMV000:54:1211,07 km/h
1010SUBERCAZESJean MichelMV300:54:1311,07 km/h
1011QUEYRONCecileFV300:54:1411,06 km/h
1012LAXAGUEBORDEADELINEFSE00:54:1411,06 km/h
1013ETCHEVERRYSophieFV100:54:1411,06 km/h
1014INDARTPhilippeMV200:54:1611,06 km/h
1015PELLETIERChristopheMV300:54:1611,06 km/h
1016PONTARRASSEEliseFV100:54:1711,05 km/h
1017LASSALLEMatthieuMV100:54:1811,05 km/h
1018LARRAMENDYVincentMV200:54:1811,05 km/h
1019INDABURUJoannaFSE00:54:1811,05 km/h
1020PONTARRASSEWilliamMV100:54:1911,05 km/h
1021MOREAUNellyFV000:54:1911,05 km/h
1022TRONTINMélanieF-00:54:2011,04 km/h
1023CUCISFloretteFV400:54:2211,04 km/h
1024BIDEGAINCaroleFSE00:54:3011,01 km/h
1025ETCHEGORRYCharlotteFSE00:54:3111,01 km/h
1026VACHERMathildeFSE00:54:3211 km/h
1027DUPERRETFlorianMSE00:54:3211 km/h
1028RUDELLECaroleFV300:54:3411 km/h
1029FORTABATClaireFSE00:54:3411 km/h
1030ROOSEPhilippeMV200:54:3510,99 km/h
1031HONTABATAudreyFV000:54:3710,99 km/h
1032CASSAGNEJustineFSE00:54:3710,99 km/h
1033JUNQUASAnthonyMSE00:54:3710,99 km/h
1034CADENACécileFV300:54:3810,98 km/h
1035JUZANMichelMV500:54:3910,98 km/h
1036CASTERESMarie-ClaireFSE00:54:3910,98 km/h
1037MOUTHONJean-PhilippeMV200:54:4210,97 km/h
1038GARICOITZ GASTONNicoleFV400:54:4310,97 km/h
1039VAILLANTBrunoMV400:54:4910,95 km/h
1040BERNARDJean-LucMV600:54:4910,95 km/h
1041SIGAUDJoannaFV000:54:5010,94 km/h
1042DERRUAUDidierMV400:54:5110,94 km/h
1043VRIGNONJean-BaptisteMSE00:54:5210,94 km/h
1044RIGOTCHLOEFSE00:54:5210,94 km/h
1045COMBLATStéphaneMV100:54:5310,93 km/h
1046CAPLANNEMagaliFV200:54:5310,93 km/h
1047PASSICOTThierryMV300:54:5410,93 km/h
1048DELBOSJustineFSE00:54:5610,92 km/h
1049PANGAUDEmmanuelleFV300:54:5610,92 km/h
1050LABORDEAurélieFV000:54:5710,92 km/h
1051VACQUIERSandrineFV200:54:5810,92 km/h
1052NIVETStéphaneMV000:54:5910,91 km/h
1053MAGETfredMV300:54:5910,91 km/h
1054HELENEEyragneFV100:55:0010,91 km/h
1055MOUROTSophieFV300:55:0210,9 km/h
1056DESCHAMPSNathalieFV200:55:0310,9 km/h
1057LAGUERREDanielMV100:55:0510,89 km/h
1058CHERBUISJean-MarcMV400:55:0510,89 km/h
1059SOULÉPatrickMV400:55:0610,89 km/h
1060FERNANDEZThomasMSE00:55:0710,89 km/h
1061FOISJean BernardMV600:55:0910,88 km/h
1062LEGENDREAurelieFV000:55:1010,88 km/h
1063ETCHEVERRYLauraFSE00:55:1010,88 km/h
1064ETCHEVERRYMaienaFSE00:55:1110,87 km/h
1065JOLYCarolineFV100:55:1110,87 km/h
1066TEYSSANDIERJeanneFCA00:55:1310,87 km/h
1067DARRIEUMERLOUJeremyMSE00:55:1410,86 km/h
1068AZARETEAnttonMV100:55:1510,86 km/h
1069MINVIELLEFlorenceFV100:55:1610,86 km/h
1070GAUZEjean-dominiqueMV400:55:1810,85 km/h
1071PLAGNOLAnnabelleFCA00:55:1810,85 km/h
1072LEMAIREAdèleFSE00:55:2010,84 km/h
1073LAVIALLEStéphanieFV000:55:2010,84 km/h
1074JEGOYannMSE00:55:2110,84 km/h
1075DA CUNHAAurélieFSE00:55:2210,84 km/h
1076GOUDETLorianeFSE00:55:2210,84 km/h
1077ETCHARTAmayaFV200:55:2210,84 km/h
1078GODINFlorianMSE00:55:2310,83 km/h
1079GOVARENicolasMSE00:55:2310,83 km/h
1080MONTEILBérangèreFV100:55:2410,83 km/h
1081GOVAREManonFSE00:55:2410,83 km/h
1082GUTIERREZSophieFV400:55:2510,83 km/h
1083DESCOMBESCelineFV000:55:2510,83 km/h
1084BARBREAUAlixFSE00:55:2610,82 km/h
1085MAUDOUINSébastienMV200:55:2710,82 km/h
1086HORNOYSylvainMV100:55:2710,82 km/h
1087ETCHEVERRYElodieFV000:55:2710,82 km/h
1088OTHEGUYNathalieFV300:55:2810,82 km/h
1089LATXAGUEEricMV100:55:3010,81 km/h
1090NOELDavidMV000:55:3010,81 km/h
1091VASSERichardMV000:55:3110,81 km/h
1092SIMONNEAUFabienMSE00:55:3210,8 km/h
1093DE LAGOUTINEChristopheMV400:55:3210,8 km/h
1094FISCHERMichèleFV300:55:3210,8 km/h
1095LARREBAIGTPhilippeMV400:55:3210,8 km/h
1096LAXAGUE MINDURRYCatiaFV200:55:3310,8 km/h
1097CASSAIGNAUCélineFV000:55:3310,8 km/h
1098DE LAGOUTINEJérémieMSE00:55:3310,8 km/h
1099BOROTRASophieFV100:55:3510,79 km/h
1100ETCHEGOINChristelleFV200:55:3610,79 km/h
1101ANDRÉJean-marcMV400:55:3610,79 km/h
1102FERRANDCATHERINEFV500:55:3610,79 km/h
1103FRANCOFlorenceFV100:55:3910,78 km/h
1104LALAGUEMarinaFV200:55:3910,78 km/h
1105LABOURDETTEThierryMV400:55:3910,78 km/h
1106MARTEGOUTELAURAFV000:55:3910,78 km/h
1107ETCHEMAITEBettanMV200:55:4210,77 km/h
1108DOGNALucasMSE00:55:4210,77 km/h
1109BIGUÉEstelleFES00:55:4310,77 km/h
1110HILBERTJérémieMV100:55:4410,77 km/h
1111MARKASSUZARomainMSE00:55:4410,77 km/h
1112JASACarineFV100:55:4510,76 km/h
1113LAFOURCADEFannyFV000:55:4510,76 km/h
1114LABORDELilianeFV200:55:4710,76 km/h
1115LANUSSE CAZALEValerieFV300:55:4810,75 km/h
1116DECHENEAUXLaurentMV300:55:4810,75 km/h
1117CAZAUBONJulieFSE00:55:4810,75 km/h
1118TEYSSANDIEREricMV300:55:4910,75 km/h
1119PONS PETITEAUXMarie-delphineFV100:55:4910,75 km/h
1120LACOUTUREEricMV300:55:4910,75 km/h
1121HIRIGOYENMyriamFV000:55:5010,75 km/h
1122MENDIONDOSandraFV100:55:5210,74 km/h
1123DUHAFredericMV400:55:5310,74 km/h
1124ETCHEVERRYJean-AndreMV500:55:5410,73 km/h
1125CRETENETAntoineMV000:55:5510,73 km/h
1126LOPEZBrunoMV400:55:5510,73 km/h
1127PEREZSandraFV100:55:5810,72 km/h
1128POUYSandrineFV200:55:5910,72 km/h
1129DUVIVIERAudeFV300:56:0010,71 km/h
1130HARISMENDYFlorenceFV000:56:0010,71 km/h
1131PIROLALaurentMV300:56:0010,71 km/h
1132DISCAZAUXMarieFSE00:56:0010,71 km/h
1133LAHURE-DIAZFrederiqueFV300:56:0110,71 km/h
1134FRANCOISEOlivierMV400:56:0110,71 km/h
1135LARROUQUETTEEricMV300:56:0210,71 km/h
1136GOYENECHEThierryMV100:56:0310,7 km/h
1137TIPISandrineFV300:56:0510,7 km/h
1138HUREAUXEricMV000:56:0510,7 km/h
1139LABATBernadetteFV500:56:0610,7 km/h
1140BETACHETCharlotteFSE00:56:0610,7 km/h
1141LAFARGUEMarineFSE00:56:0610,7 km/h
1142HIQUETKarineFV100:56:0710,69 km/h
1143VANAATeinaMV200:56:0710,69 km/h
1144DROZ-VINCENTJohannaFSE00:56:1210,68 km/h
1145GILLETVeroniqueFV400:56:1510,67 km/h
1146GOMEZ HENAOJulianaFSE00:56:1610,66 km/h
1147AYESTARANMarinaFSE00:56:1710,66 km/h
1148PLACEAUEricMV400:56:1910,65 km/h
1149RABATÉPhilippeMV200:56:2110,65 km/h
1150BIZOTQuentinMES00:56:2210,64 km/h
1151AMICEYannMV100:56:2310,64 km/h
1152BORDATTOChristianMV300:56:2310,64 km/h
1153MICHOTVirginieFV000:56:2310,64 km/h
1154GAUBERTPierreMV400:56:2410,64 km/h
1155ELIZAGOYENPeioMV200:56:2510,64 km/h
1156COHERERobertMV500:56:2510,64 km/h
1157KRZYKOSLiseFSE00:56:2610,63 km/h
1158LETELLIERLucieFV000:56:2610,63 km/h
1159ENENKELFREDERICMV100:56:2810,63 km/h
1160BALEYTEAurianeFSE00:56:2810,63 km/h
1161CANTAUAmandineFSE00:56:2810,63 km/h
1162LEVEQUESophieFSE00:56:2810,63 km/h
1163CAMESCASSEJeanMV100:56:2810,63 km/h
1164LASSALLEJean-ChristianMV600:56:2910,62 km/h
1165HAMMAMINéjibMV600:56:3310,61 km/h
1166ARTOLAInigoMES00:56:3310,61 km/h
1167ALVAREZSophieFV300:56:3410,61 km/h
1168BRETHESPierreMV000:56:3610,6 km/h
1169BORDERESMurielFV200:56:3610,6 km/h
1170MATEOSBarbaraFV000:56:3810,59 km/h
1171GODARTFrançoiseFV600:56:3810,59 km/h
1172FORTASSINCorinneFV400:56:3810,59 km/h
1173MEDARDAgatheFSE00:56:3910,59 km/h
1174MOCHONLaurenceFV400:56:4110,59 km/h
1175BAGNERES PEDEBOSCQRaphaelMSE00:56:4110,59 km/h
1176ETCHEVERRYIonMSE00:56:4210,58 km/h
1177DUCHMANNIsabelleFV200:56:4410,58 km/h
1178LAMOURELLEGillesMV400:56:4610,57 km/h
1179SUHUBIETTECécileFV100:56:4710,57 km/h
1180LARREREFrédéricMV300:56:4910,56 km/h
1181BARRAILCarlaFES00:56:4910,56 km/h
1182LOLOMJean ClaudeMV500:56:5010,56 km/h
1183GAILLARDETGregoryMV000:56:5210,55 km/h
1184GILAlexandreMSE00:56:5310,55 km/h
1185ARCOUETXavierMV100:56:5410,54 km/h
1186SAINT-GERMAINYannickMV200:56:5610,54 km/h
1187MACHICOTEOliviaFV000:56:5910,53 km/h
1188BESSEVanessaFV100:57:0010,53 km/h
1189ETAVELolaFCA00:57:0410,51 km/h
1190HEMMERTJoanaFCA00:57:0410,51 km/h
1191BATAILLERCyrilMV000:57:0510,51 km/h
1192HANUSDaphnéFSE00:57:0710,5 km/h
1193ETCHEBARNEPatriciaFV100:57:0710,5 km/h
1194LEFEVREFlorentMV000:57:0810,5 km/h
1195FERREIRAGabrielleFV100:57:0910,5 km/h
1196LARREPatrickMV300:57:1010,5 km/h
1197MARQUISEAUAlainMV400:57:1110,49 km/h
1198LALANNERichardMV200:57:1110,49 km/h
1199ROJAOLuisMV200:57:1310,49 km/h
1200HONTAASPatrikMV200:57:1310,49 km/h
1201SANSEBASTIANPierreMV000:57:1410,48 km/h
1202LARRAIN GARBISUJean-michelMV100:57:1510,48 km/h
1203BURROThierryMV300:57:1610,48 km/h
1204PROUHANadineFV400:57:1910,47 km/h
1205CASTAINGKenzaFV100:57:1910,47 km/h
1206SIMARDEddyMV000:57:2010,47 km/h
1207RANDÉ-SOURIGUESAmandineFV000:57:2110,46 km/h
1208SIMARDLaureFV000:57:2110,46 km/h
1209DURANDSylvieFV300:57:2110,46 km/h
1210BORRELLYSylvainMSE00:57:2310,46 km/h
1211TRESPEUCHCedricMV100:57:2510,45 km/h
1212LEIZAGOYEN GALARDIMurielleFV300:57:2710,44 km/h
1213BEGUERIEJean-BaptisteMSE00:57:2710,44 km/h
1214SALLABERRYJonathanMES00:57:2910,44 km/h
1215NIVIERELoïcMV100:57:3010,43 km/h
1216ITOIZSebastienMV100:57:3110,43 km/h
1217MAIRALSandrineFV100:57:3110,43 km/h
1218FINOCCHIAROBenoitMV100:57:3210,43 km/h
1219STEUNOUVirginieFV200:57:3210,43 km/h
1220DUPONTDimitriMSE00:57:3210,43 km/h
1221BISCAICHIPYIsabelleFV400:57:3310,43 km/h
1222GUERRASebastienMV100:57:3410,42 km/h
1223MALICETAnthonyMV000:57:3410,42 km/h
1224BONEBELCHEValérieFV200:57:3410,42 km/h
1225LOPEZElisabethFV000:57:3510,42 km/h
1226MOUREAUXAurelienMSE00:57:3610,42 km/h
1227ARNALAntoineMV300:57:3710,41 km/h
1228LACROIXJean-NoëlMV100:57:3710,41 km/h
1229CURUTCHETClaireFV000:57:3810,41 km/h
1230MÉRINISMatthieuMSE00:57:3910,41 km/h
1231HIRIBARRENSébastienMV000:57:3910,41 km/h
1232MESSINAAntonellaFV000:57:3910,41 km/h
1233CARTILLONJoelMV200:57:3910,41 km/h
1234CANETJohannaFSE00:57:4010,4 km/h
1235JOUANILLOUGaelMV100:57:4010,4 km/h
1236GUILHEMOTONIALaurentMV200:57:4010,4 km/h
1237ALVAREZMarineF-00:57:4010,4 km/h
1238COSTAYannickMV100:57:4010,4 km/h
1239DOS3400F-00:57:4110,4 km/h
1240SATTOChloéFV000:57:4110,4 km/h
1241VILNOTCoirentinMSE00:57:4110,4 km/h
1242DOS5878F-00:57:4210,4 km/h
1243SALHAJean-LouisMV600:57:4310,4 km/h
1244CALLAISFlorenceFV500:57:4310,4 km/h
1245LABARTABENJAMINMSE00:57:4410,39 km/h
1246CAZANOUCatherineFV100:57:4710,38 km/h
1247DURANDAdrienMV000:57:4810,38 km/h
1248SAPHARYAurélieFV000:57:4910,38 km/h
1249RITTERMURIELFV300:57:4910,38 km/h
1250HASSELOTStephaneMV300:57:5010,37 km/h
1251TOURONNicolasMV100:57:5010,37 km/h
1252FONSECAAuroreFSE00:57:5110,37 km/h
1253OLINETClaireFV100:57:5110,37 km/h
1254BUTINAudreyFV100:57:5410,36 km/h
1255LEGUAYMyleneFSE00:57:5410,36 km/h
1256ETCHELECUSandraFV100:57:5610,36 km/h
1257SERRANOMaitenaFSE00:57:5610,36 km/h
1258DAGOSCyrilMV100:57:5810,35 km/h
1259ELISSALDEJonMSE00:57:5910,35 km/h
1260ETCHEVERRYLucieFSE00:57:5910,35 km/h
1261PEYROTLandryMV100:58:0110,34 km/h
1262DERNONCOURTCharlotteFV200:58:0110,34 km/h
1263ELOLAJosebaF-00:58:0310,34 km/h
1264DUFOURGJuliaFSE00:58:0310,34 km/h
1265CAZAUXAnne LaureFV000:58:0410,33 km/h
1266ZOZAYASolageFV300:58:0710,32 km/h
1267DUPOUYLaurentMV100:58:0910,32 km/h
1268FAURETEricMV300:58:0910,32 km/h
1269BOUSQUETStephaneMV200:58:1010,32 km/h
1270SEQUEIRAWilliamMV000:58:1110,31 km/h
1271MILHERESJean ClaudeMV700:58:1210,31 km/h
1272SCANDOLABrunoMV100:58:1210,31 km/h
1273PAILLARDJulienMV000:58:1410,3 km/h
1274LORETAurélieFV100:58:1610,3 km/h
1275CASASSUSStephaneMV200:58:1710,29 km/h
1276IRUBETAGOYENASandraFSE00:58:1910,29 km/h
1277PERYKarineFV100:58:1910,29 km/h
1278CAVEAlainMV600:58:2010,29 km/h
1279ARAMENDIAAlainMV600:58:2010,29 km/h
1280GUIGNARDFabienneFV200:58:2010,29 km/h
1281DULOSTEJérômeMV000:58:2010,29 km/h
1282DOUMEINGTSOlivierMV200:58:2010,29 km/h
1283CAZETMarie-HélèneFV500:58:2110,28 km/h
1284DA SILVA TEIXEIRASophieFSE00:58:2110,28 km/h
1285BARISCécileFSE00:58:2210,28 km/h
1286HARDYAdelineFSE00:58:2210,28 km/h
1287CAZORLALisyaneFV100:58:2310,28 km/h
1288MADANIYahyaouiMV100:58:2310,28 km/h
1289BONFILLOUPClaireFV100:58:2310,28 km/h
1290SAULNIERAudreyFV000:58:2310,28 km/h
1291RICHARDNicolasMV200:58:2410,27 km/h
1292PESNELAlexandraFV100:58:2410,27 km/h
1293LAMALLEMarcMV200:58:2510,27 km/h
1294LE ROUXEricMV300:58:2610,27 km/h
1295IRIBARRENLaureFV000:58:2810,26 km/h
1296DOS SANTOSElianaFV000:58:2810,26 km/h
1297SALLABERRYLionelMV300:58:2910,26 km/h
1298DURAStephanieFV200:58:3410,24 km/h
1299BERTHELOTAlainMV200:58:3910,23 km/h
1300BORDTatianaFV200:58:4110,22 km/h
1301ELIZONDOMIGUELMV400:58:4210,22 km/h
1302FRANCISCOMélanieFSE00:58:4510,21 km/h
1303TRAMONDPhilippeMV200:58:4810,2 km/h
1304DELAUNAYChristopheMV100:58:5110,2 km/h
1305MAZZERAngeliqueFV300:58:5210,19 km/h
1306GUILLENMarieFV400:58:5210,19 km/h
1307HEGUYFlorenceFV200:58:5210,19 km/h
1308CHEVAUXXavierMV100:58:5310,19 km/h
1309FONT LAPALISSEBlandineFV100:58:5410,19 km/h
1310CAMOUGRANDPaulineFSE00:58:5410,19 km/h
1311TARAFFODominiqueFV300:58:5910,17 km/h
1312DEDEBANLucasMSE00:59:0010,17 km/h
1313SANCHEZDiegoMCA00:59:0110,17 km/h
1314ELIZONDOFlorenceFV300:59:0110,17 km/h
1315JAUREGUIBERRYSOPHIEFV100:59:0210,16 km/h
1316CAMBERABEROCelineFV200:59:0310,16 km/h
1317SAURAISThierryMV300:59:0610,15 km/h
1318CANTAUSylvainMSE00:59:0710,15 km/h
1319ZELLERMarionFSE00:59:0710,15 km/h
1320BALDAQUINAnneFV400:59:0910,14 km/h
1321MARIONGuilhemotoniaFV000:59:1010,14 km/h
1322MERLEMarinaFV200:59:1010,14 km/h
1323PETITMichaelMV200:59:1110,14 km/h
1324IRALOURCharlesMV300:59:1110,14 km/h
1325CURATNoéMSE00:59:1310,13 km/h
1326MANGIN-CAZESClaraFSE00:59:1310,13 km/h
1327ECHEVERRIAGaraziFV100:59:1410,13 km/h
1328AZTIRIACesarMSE00:59:1510,13 km/h
1329DARMAYANKarineFV100:59:1610,12 km/h
1330URRUSPILLilianMSE00:59:1610,12 km/h
1331BERNADYHugoMSE00:59:1810,12 km/h
1332BETBEDERJulienMV200:59:1810,12 km/h
1333LEPINEJulietteFSE00:59:1910,12 km/h
1334AUDRENSoniaFV200:59:2010,11 km/h
1335LA RHUBARBELaurieFSE00:59:2110,11 km/h
1336TUREAnnieFV200:59:2210,11 km/h
1337TAVERNEDidierMV600:59:2210,11 km/h
1338ESTIENNE-PODERCarineFV200:59:2210,11 km/h
1339BRAYELLEEmilieFSE00:59:2310,1 km/h
1340REYPaulineFSE00:59:2410,1 km/h
1341MASFRANDAdèleFCA00:59:2610,1 km/h
1342PICARDMarieFSE00:59:2710,09 km/h
1343SANGLARStéphaneMSE00:59:2810,09 km/h
1344ELISSALDEClaraFCA00:59:2810,09 km/h
1345LETAMENDIALaetitiaFV200:59:2910,09 km/h
1346LASSEGUETTEAliciaFSE00:59:2910,09 km/h
1347ETCHEVERRYMarcMSE00:59:2910,09 km/h
1348GOYETCHEChristineFSE00:59:3010,08 km/h
1349SAINT-GERMES DUCASSEJulesMES00:59:3010,08 km/h
1350DISCAZAUXGillesMV200:59:3310,08 km/h
1351GUINALDOFlorentMV400:59:3310,08 km/h
1352BIDEGAINMaiteFV400:59:3410,07 km/h
1353MOREIRAJulieFSE00:59:3810,06 km/h
1354TORRIJOSSéverineFV200:59:3810,06 km/h
1355LOUSTAUNAU LARRUESabrinaFSE00:59:4410,04 km/h
1356ETCHEMENDYSebastienMV100:59:4410,04 km/h
1357BEREAUMAIDERFSE00:59:4510,04 km/h
1358MARTIARENALaurenceFSE00:59:4510,04 km/h
1359SEGUINJeremieMSE00:59:4610,04 km/h
1360DEPEZAlainMSE00:59:4610,04 km/h
1361HARISTOYNicolasMSE00:59:4710,04 km/h
1362VARDONVaitiaréFV300:59:4810,03 km/h
1363COUSTILLASRomainMV000:59:4810,03 km/h
1364SENACQSABRINAFSE00:59:4810,03 km/h
1365HARISTOYDanielleFV400:59:4810,03 km/h
1366DAVIDJean-PierreMV500:59:4910,03 km/h
1367VOISEYQuentinMSE00:59:4910,03 km/h
1368MINEAUChristopheMV400:59:5010,03 km/h
1369MINEAULindaFV200:59:5010,03 km/h
1370LARQUIERBeatriceFV300:59:5010,03 km/h
1371BONEREDidierMV200:59:5410,02 km/h
1372DISCAZAUXVincentMV400:59:5810,01 km/h
1373BARUSFrédéricMV300:59:5810,01 km/h
1374PERUGORRIAChrisFV200:59:5810,01 km/h
1375GROUARDLudovicMV401:00:0010 km/h
1376GUALTERMarcMV101:00:0010 km/h
1377DUHALDEJulienMES01:00:0010 km/h
1378DISCAZAUXCathyFV301:00:0110 km/h
1379CACHENAUTGerardMV301:00:0110 km/h
1380WALTERMickaelMV101:00:059,99 km/h
1381VERGEZJean-LouisMV601:00:059,99 km/h
1382POUSSADEJean-FrançoisMV201:00:089,98 km/h
1383HOULLIERClaudeMV601:00:099,98 km/h
1384BARREAUThomasMJU01:00:099,98 km/h
1385LEMARCHANDAngéliqueFV201:00:109,97 km/h
1386DE BEAUCHAMPSophieFV201:00:109,97 km/h
1387SARTORIFabienneFV201:00:109,97 km/h
1388ARCHIDOITMurielFV101:00:109,97 km/h
1389DE BEAUCHAMPDamienMV001:00:129,97 km/h
1390BOUNYAntoineMV101:00:129,97 km/h
1391CRIADOGuillaumeMSE01:00:139,96 km/h
1392LATHMélianeFSE01:00:159,96 km/h
1393FOURTENSAurélieFSE01:00:159,96 km/h
1394WOLNYAlyssiaFJU01:00:189,95 km/h
1395LABATIsabelleFV301:00:219,94 km/h
1396MONTIGNYYannickMV301:00:229,94 km/h
1397CASTERAYvesMV301:00:239,94 km/h
1398LOUSTAUNathalieFV101:00:249,93 km/h
1399HAEHNERLauraFV001:00:259,93 km/h
1400VERGEZSandrineFV001:00:259,93 km/h
1401LARRAMENDY MUNDUTEGUYCelineFV101:00:289,92 km/h
1402PETITSandrineFV201:00:289,92 km/h
1403ZIAPKOFFVictorMES01:00:299,92 km/h
1404MABILLETEtienneMES01:00:299,92 km/h
1405MANTEROLAAnne-ClaireFV001:00:299,92 km/h
1406BAFFOIGNEGeraldMV201:00:299,92 km/h
1407ETCHEGOINPierreMES01:00:309,92 km/h
1408BORDENAVEGillesMV501:00:319,91 km/h
1409BRAOJulienMV201:00:319,91 km/h
1410IRALOURVeroniqueFV301:00:319,91 km/h
1411LEDUEYMarineFV001:00:319,91 km/h
1412SIMONAnnFV501:00:329,91 km/h
1413IRALOURMirenFCA01:00:329,91 km/h
1414AGUERREJérômeMV001:00:329,91 km/h
1415SAN PEDROXavierMSE01:00:359,9 km/h
1416DE PELLEGRINIMaiderFV001:00:369,9 km/h
1417DESCOUEYTESEvaFV001:00:379,9 km/h
1418FERREIRAKarineFV201:00:429,88 km/h
1419PANDO DE PRADOGuillermoMV001:00:469,87 km/h
1420LOPEZ SEILHEANMarieFV301:00:479,87 km/h
1421KAFIFouziaFV201:00:479,87 km/h
1422BATLLEAnnabelleFV101:00:499,87 km/h
1423ETCHEGARAYChristelFV201:00:499,87 km/h
1424KÉO-SINGHARATHEliseFV001:00:499,87 km/h
1425OLIVIERLoicMV001:00:539,85 km/h
1426LA PLANETARégineFV301:00:559,85 km/h
1427PARRAN-DEDIEUElsaFSE01:00:559,85 km/h
1428SOUBELETNathalieFV101:00:569,85 km/h
1429ARCURICarolineFSE01:00:579,84 km/h
1430RENDESandraFV201:01:009,84 km/h
1431VIVANTSébastienMV201:01:019,83 km/h
1432TISONAdélaïdeFJU01:01:089,81 km/h
1433URREIZTILeireFJU01:01:099,81 km/h
1434LOLOMMichèleFV501:01:109,81 km/h
1435QUIRANTEDidierMV401:01:119,81 km/h
1436SOPHIECarrilloFV301:01:119,81 km/h
1437TRIVIÈREGwénolaFV201:01:129,8 km/h
1438FACHESDominiqueMV601:01:139,8 km/h
1439AIROLAAlexandreMSE01:01:139,8 km/h
1440COJOAglaéFES01:01:149,8 km/h
1441ORTHETEliseFSE01:01:159,8 km/h
1442ARRIETACatherineFV201:01:159,8 km/h
1443BERSEGOLStephanieFV201:01:189,79 km/h
1444EYMARDMurielFV201:01:199,79 km/h
1445GONZALEZSophieFV201:01:249,77 km/h
1446BEZEAUDPhilippeMV001:01:249,77 km/h
1447DUBARRYSoniaFV101:01:259,77 km/h
1448JOUINAlexandreMV101:01:269,77 km/h
1449DERREUMAUXRomainMV101:01:279,76 km/h
1450LAHORGUEStéphanieFV101:01:279,76 km/h
1451DEPEYRECAVEThomasMV101:01:289,76 km/h
1452Y KLONGPatrickMV001:01:289,76 km/h
1453ROSSIBrunoMV401:01:289,76 km/h
1454LAFITTE CAMPAGNEJoannaFV201:01:299,76 km/h
1455LASSERRE SENNEBrigitteFV101:01:309,76 km/h
1456HUCHEDECaroleFV201:01:349,75 km/h
1457ARNAUDMunchMV301:01:349,75 km/h
1458CAMILLEBertuFSE01:01:369,74 km/h
1459LAMOUREUXStephaneMV401:01:409,73 km/h
1460GOYENECHECélineFV201:01:429,72 km/h
1461RABOUTETElsaFSE01:01:429,72 km/h
1462SANSINENEA SOROZABALReginoMV701:01:439,72 km/h
1463RABOUTETJoelMV501:01:439,72 km/h
1464PARIESLoïcMSE01:01:449,72 km/h
1465GUARDADONathalieFV301:01:479,71 km/h
1466HIRIARTAnneFV101:01:499,71 km/h
1467LAMOTHEClaireFV001:01:499,71 km/h
1468MARQUINEAudreyFSE01:01:499,71 km/h
1469TRAMONDSabineFV101:01:509,7 km/h
1470DOUCHETChristineFV401:01:519,7 km/h
1471ETCHEPAREAlbertMV501:01:519,7 km/h
1472POUFFARYMagaliFV201:01:519,7 km/h
1473BONVALLETVeroniqueFV201:01:539,7 km/h
1474CABEStephaneMV301:01:559,69 km/h
1475CABEGracianneFV301:01:559,69 km/h
1476ZABALOCarineFV201:01:589,68 km/h
1477PEREIRAAnaisFSE01:01:589,68 km/h
1478PETITJÉRÉMYMSE01:01:599,68 km/h
1479ODRIOZOLAAinhoaFSE01:02:009,68 km/h
1480FAURMichelMV701:02:009,68 km/h
1481MÉRINISRolandMV701:02:019,67 km/h
1482PERYYohanMJU01:02:019,67 km/h
1483BALLANDMurielleFV301:02:029,67 km/h
1484BABARITXavierMV201:02:039,67 km/h
1485LAINEAurelieFSE01:02:049,67 km/h
1486LARREGLELaureFV001:02:079,66 km/h
1487DESCOUEYTESSebastienMV201:02:079,66 km/h
1488LOPEZLiseFJU01:02:119,65 km/h
1489MINDEGUIAEliseFCA01:02:139,64 km/h
1490BOUCHETAurelieFV101:02:149,64 km/h
1491LABADIECamilleFSE01:02:149,64 km/h
1492TESTESabineFV201:02:149,64 km/h
1493COLINSébastienMCA01:02:149,64 km/h
1494HARDYJulieFSE01:02:159,64 km/h
1495ALVAREZHeleneFV501:02:159,64 km/h
1496BERNARDMarianneFV001:02:159,64 km/h
1497COLINCelineFV101:02:159,64 km/h
1498MASSELOT URRUSPILJosianeFV501:02:199,63 km/h
1499COADICYannickMV101:02:219,62 km/h
1500MERLOSimonMV101:02:269,61 km/h
1501SALLEFRANQUEJulieFSE01:02:309,6 km/h
1502ALVAREZJérômeMV301:02:319,6 km/h
1503FERMONDMaienaFJU01:02:329,59 km/h
1504PHILIPPEAUMélanieFV101:02:329,59 km/h
1505LARRICARTPaolaFJU01:02:329,59 km/h
1506PICONLeslieFV001:02:349,59 km/h
1507LARCABALLaetitiaFV101:02:359,59 km/h
1508LOUBATIERESSandrineFV101:02:389,58 km/h
1509ERRAMUZPEJean MarieMV501:02:389,58 km/h
1510INDARTNadineFV201:02:449,56 km/h
1511DUCOURNEAUCharlotteFSE01:02:449,56 km/h
1512BEGEYFabienMV201:02:459,56 km/h
1513LAULOMPierreMV501:02:459,56 km/h
1514BURRETCélineFV201:02:469,56 km/h
1515FONTAGNIEMagaliFV201:02:469,56 km/h
1516LAVIGNASSESylvieFV401:02:469,56 km/h
1517PELLENAurélieFCA01:02:479,56 km/h
1518HARISQUIRYNathalieFV201:02:479,56 km/h
1519BATIFOULIÉEliseFJU01:02:479,56 km/h
1520OURLIACBenjaminMSE01:02:479,56 km/h
1521PENAElodieFV101:02:479,56 km/h
1522GAILLOURDETRoseFJU01:02:489,55 km/h
1523GEORGEMargauxFV101:02:509,55 km/h
1524PIDOFFPascalMV401:02:539,54 km/h
1525FERRIERJacquesMV301:02:539,54 km/h
1526SAN BAUDELIOJean MarcMV401:02:549,54 km/h
1527BARRÈREFrançoiseFV501:02:589,53 km/h
1528BRETAUDLaurieFSE01:02:589,53 km/h
1529ETCHEGOYENAmandineFV101:02:589,53 km/h
1530CAVAILLÉFrédéricMV201:02:599,53 km/h
1531HASPERUELouisMV801:02:599,53 km/h
1532MESTDAGHHeleneFV201:02:599,53 km/h
1533LAPORTEEmilieFV101:03:009,52 km/h
1534BASTIATMarieFV001:03:029,52 km/h
1535LABOYSandraFV201:03:049,51 km/h
1536SCANDOLALaureFV101:03:049,51 km/h
1537ORTHETIsabelleFV201:03:069,51 km/h
1538DASSEMarlèneFV101:03:109,5 km/h
1539DUBRUELNathalieFV101:03:149,49 km/h
1540DE ARAUJORuiMV101:03:149,49 km/h
1541JACQUEMINFranckMV401:03:169,48 km/h
1542THÉOSabarotsMES01:03:199,48 km/h
1543TISSIEREManonFSE01:03:209,47 km/h
1544VALENTINBrunoMV501:03:229,47 km/h
1545ROUILLONJean-HuguesMV301:03:289,45 km/h
1546LARREPatrickMV401:03:299,45 km/h
1547FROUSTEY-BROSSARDMarie-PauleFV301:03:299,45 km/h
1548CASTERAAliciaFES01:03:339,44 km/h
1549ERRECARTRémiMSE01:03:339,44 km/h
1550GUECAMBURUMoniqueFV301:03:339,44 km/h
1551ERRECARTMaiteFV401:03:339,44 km/h
1552CARREJeromeMV201:03:339,44 km/h
1553LAPLACEAnneFES01:03:369,43 km/h
1554LAPLACESophieFV301:03:379,43 km/h
1555SALDUMBIDEBrunoMV201:03:389,43 km/h
1556LURO DAINCIARTGenevièveFV201:03:389,43 km/h
1557RECHEJessicaFSE01:03:399,43 km/h
1558LAPLACEMarieFES01:03:399,43 km/h
1559ZINGUERLETLaurianeFSE01:03:449,41 km/h
1560JOLIVETAlexiaFJU01:03:449,41 km/h
1561THIBAUTAlexandreMSE01:03:449,41 km/h
1562DOMERCQCélineFV301:03:459,41 km/h
1563HONTARREDEIsabelleFV301:03:459,41 km/h
1564SUZANRichardMV401:03:459,41 km/h
1565AUBERTCindyFV101:03:469,41 km/h
1566SAINT-GERMES DUCASSEJeanneFSE01:03:479,41 km/h
1567LABORDEGermainMV101:03:479,41 km/h
1568SADERMaylisFV401:03:499,4 km/h
1569LASSALLENicolasMSE01:03:509,4 km/h
1570LAFOURCADEAlexandraFSE01:03:519,4 km/h
1571PÉROTCédricMV201:03:519,4 km/h
1572DALLEPascaleFV501:03:519,4 km/h
1573FERREIRA MACIASToñiMV201:03:589,38 km/h
1574CARONJoelMV301:03:589,38 km/h
1575FERREIRAJACQUELINEFV301:03:599,38 km/h
1576JÉRÔMEGelibertMV301:04:009,38 km/h
1577ZUMETAMarieFV201:04:119,35 km/h
1578CAZETEvelyneFV401:04:119,35 km/h
1579ASSERINJean-ClaudeMV401:04:149,34 km/h
1580JULIÉChrystèleFV201:04:149,34 km/h
1581MIELVAQUEElsaFSE01:04:159,34 km/h
1582ONAINDIAAritzMV201:04:169,34 km/h
1583VINOYClarisseFV201:04:189,33 km/h
1584DAGUERREMaiteFV301:04:189,33 km/h
1585LEMAIRELéaFJU01:04:219,32 km/h
1586RODRIGUEZAnnaFJU01:04:229,32 km/h
1587HERREROCarineFV101:04:249,32 km/h
1588SANSEBASTIANCécileFV101:04:269,31 km/h
1589GUÉRIN-CHAUVETChristelleFV101:04:279,31 km/h
1590CURUTCHETCélineFV101:04:289,31 km/h
1591BATTISTONMartineFV501:04:319,3 km/h
1592POYDESSUSPascalMV401:04:319,3 km/h
1593ESTRADEDanielMV401:04:329,3 km/h
1594LAVIGNEMarie-catherineFV501:04:329,3 km/h
1595ARRANNORomainMV001:04:339,3 km/h
1596DUGUINEFabienneFV101:04:339,3 km/h
1597DUVIAUSandrineFV201:04:339,3 km/h
1598PELHATESebastienMV201:04:349,29 km/h
1599GUEZALAMaiderMV001:04:349,29 km/h
1600ADOUEJean-LucMV201:04:349,29 km/h
1601ARRANNOJulieFSE01:04:349,29 km/h
1602IDIEDERPascalMV001:04:359,29 km/h
1603DOS4485F-01:04:359,29 km/h
1604DESCATFredericMV101:04:359,29 km/h
1605ALINEDescatFV101:04:359,29 km/h
1606HASSELOTSophieFV301:04:369,29 km/h
1607SCHEVEILERThierryMV301:04:469,26 km/h
1608DOLETLudovicMV001:04:469,26 km/h
1609LAFITTECECILEFV001:04:469,26 km/h
1610TORTIGUELaurentMV101:04:479,26 km/h
1611TEISSEIREJulieFV101:04:489,26 km/h
1612LACAULEBrunoMV001:04:499,26 km/h
1613LAFITTESebastienMV001:04:499,26 km/h
1614TORTIGUEHélèneFV101:04:499,26 km/h
1615CASAMAYOUAudreyFSE01:04:509,25 km/h
1616GARCIAVanesaFV101:04:509,25 km/h
1617CHELPIOlivierMV301:04:519,25 km/h
1618FABREMarie-HélèneFV701:04:519,25 km/h
1619BALLINBrunoMV101:04:519,25 km/h
1620DELANGHEBeñatMV501:04:519,25 km/h
1621CHEVAUXSoniaFV101:04:529,25 km/h
1622LARRONDEIsabelleFV001:04:529,25 km/h
1623JEANPIERREStéphanieFV101:04:539,25 km/h
1624CAPOULMagaliFV301:04:539,25 km/h
1625LETAMENDIAXavierMV201:04:549,24 km/h
1626SICOULYEmilieFV101:04:559,24 km/h
1627MORICHEREMirelaFV101:05:029,23 km/h
1628LAFITTECHRISTIANMV101:05:029,23 km/h
1629ALTOZANORonaldMV201:05:049,22 km/h
1630RONDOTAmélieFV101:05:059,22 km/h
1631BARRISVanessaFV101:05:069,22 km/h
1632NOUGUE DESSUSCélineFV301:05:079,21 km/h
1633LOPESBeatriceFV001:05:089,21 km/h
1634BREDOWElodieFV201:05:089,21 km/h
1635COLINMyriamFV101:05:099,21 km/h
1636PREBENDEAnnieFV501:05:119,2 km/h
1637KIRALY ROULANDIlonaFSE01:05:209,18 km/h
1638ARIN ELIZAGOIENElorriFSE01:05:209,18 km/h
1639LEURGORRYChloeFSE01:05:209,18 km/h
1640ALLAINStevesMV301:05:209,18 km/h
1641LEURGORRYMarcelMV501:05:219,18 km/h
1642ALLAINAnaisFSE01:05:219,18 km/h
1643CALANDOTAmelieFV101:05:229,18 km/h
1644PEYRONNETLucieFSE01:05:239,18 km/h
1645LAVOLaëtitiaFSE01:05:249,17 km/h
1646BRESSON ONCINAMarineFSE01:05:249,17 km/h
1647CAPLANNEAstridFV301:05:259,17 km/h
1648BUTETGillesMSE01:05:289,16 km/h
1649SAINT GERMAINChristelleFV101:05:299,16 km/h
1650ROSJean MichelMV301:05:319,16 km/h
1651BARCOSLauraFES01:05:329,16 km/h
1652DUVIGNEAUOphelieFJU01:05:339,15 km/h
1653CAMYPierreMES01:05:349,15 km/h
1654DOUATMargotFSE01:05:359,15 km/h
1655GHILBERTKarineFV201:05:359,15 km/h
1656ELIZONDOMarieFSE01:05:369,15 km/h
1657DE CLERCQOlivierMV001:05:379,14 km/h
1658LAFARGUEBénédicteFV001:05:389,14 km/h
1659MASTAGLIOAmandineFV001:05:389,14 km/h
1660BRUHATMarilyneFV001:05:399,14 km/h
1661COFOURAINCatherineFV201:05:439,13 km/h
1662FORESTIERSolangeFV401:05:449,13 km/h
1663PEARCEGeraldMV301:05:449,13 km/h
1664TEJEDORCeciliaFSE01:05:489,12 km/h
1665MARIETTEFabienMV201:05:489,12 km/h
1666BOURGEOISElodieFV101:05:499,12 km/h
1667SARRAUDELéaFSE01:05:509,11 km/h
1668BOURGEOISAnaisFV101:05:509,11 km/h
1669MARCOSDominiqueFV3<